İHALESİ DEVAM EDEN HASARLI ARAÇLARIN LİSTESİ

Aşağıda sınırlı sayıda hasarlı araçlar listelenmektedir.
İhaledeki tüm araçları görüp almak istediğiniz araca teklif vermeniz için aşağıda yazılı hesaplarımızdan birine 20.000 TL teminat yatırmanız gerekmektedir.
Teminat yatırdıktan sonra araçlar teklif vermeye başlayabilirsiniz. Araç kaldıktan sonra aracın rakamına göre kapora almaktayız. Ödeme geldiğinde kaporanızı ödeyeceğiniz miktardan düşüyoruz. İsterseniz yatırdığınız teminatınızı da aldığınız araçtan düşebilirsiniz ya da teminatınız durur araç almaya devam edersiniz.
Ödeme yapılacak veya bekleyen araçlar menüsünde aracınız yoksa teminatınızı geri çekebilirsiniz.
Aldığınız aracı ödemezseniz teminatınız yanar.

 #

Model

Aracın Markası Aracın Tipi Bulunduğu Şehir Kapanış Tarihi Asgari Fiyat
1 2021 Motorsiklet REVOLT RM5 X MAXI SCOOTER İzmir 6.5.2026 10:00 250 TL
2 1996 Fiat/Tofaş TİPO 1.6 SLX Manisa 6.5.2026 10:00 250 TL
3 2023 Motorsiklet APEC APX5 Trabzon 6.5.2026 10:00 250 TL
4 2023 Motorsiklet KANUNI RESA 125 Gaziantep 6.5.2026 10:00 250 TL
5 2023 Motorsiklet RKS SPONTINI 110 (GST110T-14) İstanbul 6.5.2026 10:00 250 TL
6 2018 Motorsiklet LIFAN DISCOVERY 150 (LF150-9J) Isparta 6.5.2026 10:00 250 TL
7 2023 Motorsiklet KANUNI SEHA 150 Rize 6.5.2026 10:00 250 TL
8 2023 Motorsiklet RKS SPONTINI 110 (GST110T-14) İstanbul 6.5.2026 10:00 250 TL
9 2014 Motorsiklet KTM 390 DUKE Elazığ 6.5.2026 10:00 250 TL
10 2024 Motorsiklet MONDIAL SFC MİNİ 50 Konya 6.5.2026 10:00 250 TL
11 2025 Motorsiklet MONDIAL SFC 50 Kahramanmaraş 6.5.2026 10:00 250 TL
12 2023 Motorsiklet MONDIAL 50 wing Denizli 6.5.2026 10:00 250 TL
13 1993 Motorsiklet HONDA KINETIC Kilis 6.5.2026 10:00 250 TL
14 2014 Motorsiklet MONDIAL 100 SUPERBOY i İstanbul 6.5.2026 10:00 250 TL
15 1991 Fiat/Tofaş KARTAL 1.6 İstanbul 6.5.2026 10:30 750 TL
16 2024 Motorsiklet ARORA AR 06 Samsun 6.5.2026 10:30 500 TL
17 2019 Motorsiklet SYM JET14 125 İstanbul 6.5.2026 10:30 500 TL
18 2022 Motorsiklet MONDIAL VULTURE İ 125 İstanbul 6.5.2026 10:30 500 TL
19 2022 Motorsiklet KUBA SPACE 50 Zonguldak 6.5.2026 10:30 250 TL
20 2024 Motorsiklet ARORA CAPPUCCINO 125 İstanbul 6.5.2026 10:30 250 TL
21 2024 Motorsiklet RKS RK 125 S Samsun 6.5.2026 10:30 250 TL
22 2021 Motorsiklet CFMOTO 150 NK Aydın 6.5.2026 10:30 500 TL
23 2024 Motorsiklet MUSATTI GLAMARO MAX 125 İstanbul 6.5.2026 10:30 250 TL
24 2022 Motorsiklet KUBA BLUEBERRY 50 Aydın 6.5.2026 10:30 750 TL
25 2024 Motorsiklet FALCON SALVADOR 188 Çorum 6.5.2026 10:30 250 TL
26 2024 Motorsiklet MONDIAL EXON 50 Ankara 6.5.2026 10:30 250 TL
27 2015 Motorsiklet KYMCO PEOPLE ONE 125i Denizli 6.5.2026 10:30 250 TL
28 2024 Motorsiklet APEC PS3 50 Ankara 6.5.2026 10:30 250 TL
29 2024 Motorsiklet ALTAI CARRIER 110 PRO İstanbul 6.5.2026 11:00 5.500 TL
30 2024 Motorsiklet HERO DASH 125 Bursa 6.5.2026 11:00 6.000 TL
31 2023 Motorsiklet MONDIAL AİRTİME 50CC Isparta 6.5.2026 11:00 4.500 TL
32 2024 Motorsiklet HONDA ACTIVA 125 Zonguldak 6.5.2026 11:00 3.000 TL
33 2025 Motorsiklet RKS VRS125 İzmir 6.5.2026 11:00 3.000 TL
34 2025 Motorsiklet MONDIAL 125 DRİFT L Kayseri 6.5.2026 11:00 2.000 TL
35 2023 Motorsiklet MONDIAL STRADA 125 Ankara 6.5.2026 11:00 2.500 TL
36 1999 Mitsubishi CARISMA 1.6 GL HB Denizli 6.5.2026 11:00 4.000 TL
37 2023 Motorsiklet BAJAJ PULSAR F 250 İzmir 6.5.2026 11:00 3.500 TL
38 2023 Motorsiklet CFMOTO 250 NK Aydın 6.5.2026 11:00 2.000 TL
39 1994 Fiat/Tofaş SAHİN Ağrı 6.5.2026 11:00 3.000 TL
40 2019 Motorsiklet MONDİAL MASH 125 İstanbul 6.5.2026 11:00 2.500 TL
41 2025 Motorsiklet TVS JUPITER 125 Adana 6.5.2026 11:00 1.500 TL
42 2023 Motorsiklet ARORA CAPPUCCINO 50 Antalya 6.5.2026 11:00 1.500 TL
43 1998 Renault 19 EUROPA Ankara 6.5.2026 11:30 33.000 TL
44 2025 Motorsiklet RKS VRS125 İstanbul 6.5.2026 11:30 17.000 TL
45 1998 Renault 19 EUROPA 1.4 RNA Diyarbakır 6.5.2026 11:30 24.000 TL
46 2023 Motorsiklet HONDA DİO Muğla 6.5.2026 11:30 26.000 TL
47 1994 Fiat/Tofaş SAHİN 1.6 Çanakkale 6.5.2026 11:30 12.500 TL
48 2025 Motorsiklet RKS FRECCIA 150 İstanbul 6.5.2026 11:30 14.000 TL
49 2024 Motorsiklet RKS M250 Mersin 6.5.2026 11:30 18.000 TL
50 2016 Skoda SUPERB STYLE 1.4 TSI ACT 150 Adana 6.5.2026 11:30 27.500 TL
51 2025 Motorsiklet KYMCO SKYTOWN 125 İstanbul 6.5.2026 11:30 21.000 TL
52 2003 Renault KANGOO 1.9D Karaman 6.5.2026 11:30 7.500 TL
53 1993 Toyota CORONA 2.0 GLI Kocaeli 6.5.2026 11:30 16.500 TL
54 1999 Fiat/Tofaş PALIO 1.6 HL İstanbul 6.5.2026 11:30 31.000 TL
55 2001 Renault LAGUNA 2.0 16V RXT Kahramanmaraş 6.5.2026 11:30 17.500 TL
56 2024 Motorsiklet ARORA MT 125 Ankara 6.5.2026 11:30 7.000 TL
57 2024 Motorsiklet TVS RAIDER Ankara 6.5.2026 12:00 36.000 TL
58 2022 Motorsiklet BAJAJ DOMINAR D 250 İstanbul 6.5.2026 12:00 73.500 TL
59 1999 Fiat/Tofaş KARTAL1.6 i.e. Adana 6.5.2026 12:00 50.000 TL
60 2001 Peugeot 306 PLATINUM 1.6 4 KAPI Yozgat 6.5.2026 12:00 71.500 TL
61 2021 Motorsiklet BAJAJ DOMINAR 250 Adana 6.5.2026 12:00 36.500 TL
62 2003 Fiat/Tofaş DOBLO CARGO COMBİ 1.9D Rize 6.5.2026 12:00 36.500 TL
63 1994 Fiat/Tofaş DOGAN S Çanakkale 6.5.2026 12:00 34.500 TL
64 2010 Tata XENON CIFT KABIN KAMYONET İzmir 6.5.2026 12:00 63.000 TL
65 2001 Seat IBIZA STELLA 1.6 Malatya 6.5.2026 12:00 33.000 TL
66 1999 Fiat/Tofaş TIPO 1.6 i.e. SLX Ankara 6.5.2026 12:00 33.500 TL
67 2008 Fiat/Tofaş DOBLO CARGO 1.3 MULTIJET ACTIVE İstanbul 6.5.2026 12:00 54.000 TL
68 2011 Fiat/Tofaş DOBLO COMBI 1.3 MULTIJET DYNAMIC Tekirdağ 6.5.2026 12:00 71.000 TL
69 1996 Iveco KAMYON 85.12 Şırnak 6.5.2026 12:00 58.500 TL
70 2015 Ford TRANSIT CUSTOM VAN 310 S (100) TREND Şanlıurfa 6.5.2026 12:00 62.500 TL
71 1987 Renault 12 TSW Elazığ 6.5.2026 13:30 84.000 TL
72 2008 Fiat/Tofaş ALBEA SOLE 1.3 MULTİJET Konya 6.5.2026 13:30 109.000 TL
73 1998 Mitsubishi L300 CAMLIVAN İstanbul 6.5.2026 13:30 94.000 TL
74 2008 Renault SYMBOL 1.5 DCI EXTREME (65) Sakarya 6.5.2026 13:30 92.000 TL
75 1996 Volkswagen GOLF CL 1.8 Ankara 6.5.2026 13:30 91.500 TL
76 2016 Motorsiklet YAMAHA R25 Manisa 6.5.2026 13:30 79.500 TL
77 2000 Renault SCENIC 1.6 16V RXT OV Bursa 6.5.2026 13:30 111.500 TL
78 2000 Renault MEGANE RTE 1.6 Samsun 6.5.2026 13:30 93.500 TL
79 2002 Bmw 316 ti COMPACT Kastamonu 6.5.2026 13:30 86.500 TL
80 2016 Volkswagen POLO 1.2 TSI BMT 90 DSG ALLSTAR İstanbul 6.5.2026 13:30 124.500 TL
81 2017 Isuzu D-MAX CIFT KABIN KAMYONET 2.5 4x4 TR 6MT Adıyaman 6.5.2026 13:30 81.500 TL
82 1998 Opel CORSA 1.4i 16V GLS Kocaeli 6.5.2026 13:30 81.500 TL
83 2012 Geely EMGRAND EC7 SEDAN 1.5 BASIC İstanbul 6.5.2026 13:30 75.500 TL
84 2004 Toyota COROLLA 1.6 TERRA SEDAN Ankara 6.5.2026 13:30 89.000 TL
85 2005 Citroen C3 1.4 HDI X 5 KAPI İstanbul 6.5.2026 14:00 145.000 TL
86 2004 Peugeot 307 1.6 XR 5 KAPI Ankara 6.5.2026 14:00 143.000 TL
87 2006 Fiat/Tofaş PALIO 1.4 FIRE ACTIVE Ankara 6.5.2026 14:00 125.000 TL
88 2005 Ford C-MAX 1.6 TDCİ GHIA Aksaray 6.5.2026 14:00 197.500 TL
89 1996 Honda CIVIC 1.6 HB İstanbul 6.5.2026 14:00 145.000 TL
90 2000 Peugeot 206 GTI 2.0 Aksaray 6.5.2026 14:00 130.000 TL
91 2005 Fiat/Tofaş STILO 1.6 DYNAMIC 3 KAPI Ankara 6.5.2026 14:00 148.000 TL
92 2009 Fiat/Tofaş DOBLO COMBI 1.3 MULTIJET ACTIVE İstanbul 6.5.2026 14:00 178.000 TL
93 2006 Kia RIO 1.5 CRDI 4NB COMFORT Sakarya 6.5.2026 14:00 200.000 TL
94 2011 Skoda ROOMSTER 1.2 Ankara 6.5.2026 14:00 171.500 TL
95 2009 Renault CLIO HB EXPRESSION 1.5 DCI İstanbul 6.5.2026 14:00 170.000 TL
96 2010 Fiat/Tofaş ALBEA SOLE 1.3 MULTIJET ACTIVE İstanbul 6.5.2026 14:00 129.500 TL
97 2011 Hyundai i20 TROY 1.2 DOHC 78 PS TEAM İzmir 6.5.2026 14:00 178.500 TL
98 2017 Suzuki BALENO 1.2 TECHNO AT İstanbul 6.5.2026 14:00 139.500 TL
99 2009 Toyota COROLLA SEDAN 1.4 4-4D COMFORT M/M Ankara 6.5.2026 14:30 303.000 TL
100 2012 Fiat/Tofaş PUNTO EVO 5K MY LIFE 1.4 FIRE (77) İstanbul 6.5.2026 14:30 318.500 TL
101 2006 Ford FUSION 1.4i TDCi COMFORT ASM Tekirdağ 6.5.2026 14:30 298.500 TL
102 2011 Renault MEGANE III HB EXPRESSION 1.5 DCI 85 Yalova 6.5.2026 14:30 313.000 TL
103 2017 Ford TOURNEO CUSTOM 2.0 8+1 Adana 6.5.2026 14:30 300.000 TL
104 2012 Ford TRANSIT 300 S KOMBI VAN Ankara 6.5.2026 14:30 253.000 TL
105 2015 Dacia SANDERO STEPWAY 1.5 DCI 90 Ankara 6.5.2026 14:30 279.500 TL
106 2013 Hyundai ACCENT BLUE 1.4 CVVT MODE PLUS OV Ankara 6.5.2026 14:30 284.000 TL
107 2015 Dacia SANDERO STEPWAY 1.5 DCI 90 EURO5 İstanbul 6.5.2026 14:30 317.500 TL
108 2021 Fiat/Tofaş EGEA SEDAN EASY 1.4 FIRE 95 Ankara 6.5.2026 14:30 201.500 TL
109 2015 Dacia LODGY LAUREATE 1.5 DCI 90 7 KISILIK İstanbul 6.5.2026 14:30 249.500 TL
110 2009 Ford FOCUS 1.6 HB TITANIUM İstanbul 6.5.2026 14:30 287.000 TL
111 2023 Citroen C4 X FEEL BOLD 1.2 PURETECH 130 EAT8 Eskişehir 6.5.2026 14:30 236.000 TL
112 2007 Volkswagen CRAFTER KAMYONET 2.5 TEK KABİN OTO KURTARICI Diyarbakır 6.5.2026 14:30 231.500 TL
113 2012 Volkswagen JETTA 1.6 TDI (105) HIGHLINE Antalya 6.5.2026 15:00 561.500 TL
114 2014 Opel ASTRA SEDAN 1.6 DIZEL 136 SPORT Ankara 6.5.2026 15:00 384.500 TL
115 2012 Volkswagen GOLF VI 1.6 TDI TRENDLINE İstanbul 6.5.2026 15:00 407.000 TL
116 2007 Honda JAZZ 1.4 LS CVT İstanbul 6.5.2026 15:00 373.000 TL
117 1998 Mercedes E 200 2.0 AVANGARDE Ankara 6.5.2026 15:00 353.000 TL
118 2012 Hyundai i20 1.4 CVVT SENSE OV İstanbul 6.5.2026 15:00 348.500 TL
119 2016 Hyundai i20 1.2 MPI STYLE PANORAMA Sakarya 6.5.2026 15:00 334.000 TL
120 2011 Mercedes VITO MINIBUS MN328 113 CDI (8+1) İstanbul 6.5.2026 15:00 387.000 TL
121 2025 Ford TRANSIT COURIER VAN 1.5 D 100 TREND İstanbul 6.5.2026 15:00 432.000 TL
122 2012 Volkswagen POLO 1.6 TDI COMFORTLINE (90) Ankara 6.5.2026 15:00 429.000 TL
123 2018 Ford CARGO 1842 T Ankara 6.5.2026 15:00 459.000 TL
124 2016 Iveco 70C15 KAMYON Diyarbakır 6.5.2026 15:00 356.000 TL
125 2024 Kia BONGO KAMYONET Şanlıurfa 6.5.2026 15:00 344.000 TL
126 2015 Iveco 35C15 İstanbul 6.5.2026 15:00 427.000 TL
127 2015 Bmc CEKICI PRO 1144 ACX 4x2 E5 Ankara 6.5.2026 15:00 430.000 TL
128 2017 Renault MEGANE SEDAN 1.5 DCI Ankara 6.5.2026 15:15 1.000 TL
129 2015 Nissan QASHQAI 1.6 DCI Tekirdağ 6.5.2026 15:15 1.500 TL
130 2021 Skoda OCTAVIA 1.0 e-TEC Düzce 6.5.2026 15:15 1.000 TL
131 2024 Volkswagen T-ROC 1.5 TSI Edirne 6.5.2026 15:15 1.000 TL
132 2025 Dacia SANDERO STEPWAY 1.0 TCE İzmir 6.5.2026 15:15 1.000 TL
133 2014 Citroen C-ELYSEE 1.6 HDI Adana 6.5.2026 15:15 1.000 TL
134 2013 Ford T.CONNECT KOMBI K210S 1.8 TDCI Aksaray 6.5.2026 15:15 1.000 TL
135 2019 Dacia DUSTER 1.6 ECO-G Bursa 6.5.2026 15:15 1.000 TL
136 2019 Fiat/Tofaş EGEA EASY 1.4 FIRE İstanbul 6.5.2026 15:15 1.000 TL
137 2026 Toyota C-HR 1.8 HYBRID Gaziantep 6.5.2026 15:15 2.000 TL
138 2016 Volvo S90 2.0 D5 INSCRIPTION Ankara 6.5.2026 15:15 1.000 TL
139 2017 Honda CIVIC SEDAN 1.6i VTEC Malatya 6.5.2026 15:15 136.900 TL
140 2020 Fiat/Tofaş DOBLO COMBI 1.6 M.JET Tekirdağ 6.5.2026 15:15 60.000 TL
141 2022 Renault EXPRESS COMBI 1.5 BLUEDCİ İzmir 6.5.2026 15:15 1.000 TL
142 2023 Mercedes EQB 250+ Kayseri 6.5.2026 15:15 679.900 TL
143 2023 Audi A3 SEDAN 35 TFSI Ankara 6.5.2026 15:15 1.000 TL
144 2012 Ford T. CONNECT KOMBI GLX K210 S 1.8 TDCI Kayseri 6.5.2026 15:15 266.000 TL
145 2008 Suzuki SWIFT 1.5 Trabzon 6.5.2026 15:15 10.000 TL
146 2022 Renault CLIO JOY 1.0 TCE İstanbul 6.5.2026 15:15 100.000 TL
147 2015 Bmw 320i ED SEDAN İstanbul 6.5.2026 15:15 101.500 TL
148 2013 Fiat/Tofaş DOBLO COMBI 1.3 M.JET Antalya 6.5.2026 15:15 3.800 TL
149 2011 Bmw 116i Çanakkale 6.5.2026 15:15 380.500 TL
150 2020 Renault CLIO 1.3 TCE İstanbul 6.5.2026 15:15 1.000 TL
151 2020 Volkswagen T-ROC 1.5 TSI Ankara 6.5.2026 15:15 500 TL
152 2014 Fiat/Tofaş 500L 1.3 MULTIJET İstanbul 6.5.2026 15:15 334.500 TL
153 2016 Dacia SANDERO STEPWAY 1.5 DCI Mersin 6.5.2026 15:15 1.000 TL
154 2024 Renault KANGOO MULTIX 1.3 TCE Bursa 6.5.2026 15:15 100.000 TL
155 2012 Fiat/Tofaş DUCATO MINIBUS 16+1 İstanbul 6.5.2026 15:15 36.000 TL
156 2024 Fiat/Tofaş DOBLO COMBI EASY 1.5 BLUEHDI Kars 6.5.2026 15:30 1.000 TL
157 2014 Renault CEKICI PREMIUM 460.19 T 4x2 Antalya 6.5.2026 15:30 1.000 TL
158 2013 Seat IBIZA 1.2 TSI (105) STYLE DSG Kırklareli 6.5.2026 15:30 1.000 TL
159 2013 Opel ASTRA 1.3 CDTİ SEDAN EDİTİON Diyarbakır 6.5.2026 15:30 1.000 TL
160 2022 Mercedes CEKICI ACTROS 1848 LS 4X2 FL Eskişehir 6.5.2026 15:30 1.000 TL
161 2000 Suzuki SWIFT 1.3 GLX HB İstanbul 6.5.2026 15:30 1.000 TL
162 2015 Volkswagen CC 1.4 TSI Ankara 6.5.2026 15:30 1.000 TL
163 2025 Fiat/Tofaş EGEA CROSS 1.6 M.JET Bursa 6.5.2026 15:30 1.000 TL
164 2017 Renault MEGANE HB TOUCHROME 1.5 DCI 110 Kocaeli 6.5.2026 15:30 1.000 TL
165 2011 Suzuki SPLASH 1.2 GLS OV İstanbul 6.5.2026 15:30 1.000 TL
166 2024 Motorsiklet SPONTINI 125 İstanbul 6.5.2026 15:30 1.000 TL
167 2022 Motorsiklet DOMINAR D 250 İstanbul 6.5.2026 15:30 1.000 TL
168 2022 Hyundai i20 1.4 MPI İstanbul 6.5.2026 15:30 1.000 TL
169 2013 Volkswagen JETTA 1.6 TDI Sakarya 6.5.2026 15:30 1.000 TL
170 2016 Peugeot 301 1.6 HDI İstanbul 6.5.2026 15:30 1.000 TL
171 2023 Renault CLIO EVOLUTION 1.0 TCE X-TRONIC 90 İstanbul 6.5.2026 15:30 1.000 TL
172 1993 Honda CIVIC 1.5 EX SEDAN Kastamonu 6.5.2026 15:30 1.000 TL
173 2005 Hyundai ACCENT 1.5 CRDI ADMIRE (Y) Ankara 6.5.2026 15:30 1.000 TL
174 2023 Motorsiklet 250 NK İstanbul 6.5.2026 15:30 1.000 TL
175 2011 Isuzu D MAX CIFT KABIN KAMYONET 4x2 Antalya 6.5.2026 15:30 1.000 TL
176 2020 Fiat/Tofaş DOBLO CARGO 1.3 M.JET 95 E6D İstanbul 6.5.2026 15:30 1.000 TL
177 2022 Motorsiklet MATİ 125 Antalya 6.5.2026 15:30 1.000 TL
178 2000 Honda CIVIC 1.6 iES 4 KAPI (Y) Kahramanmaraş 6.5.2026 15:30 1.000 TL
179 2024 Motorsiklet NMAX 125 Bursa 6.5.2026 15:30 1.000 TL
180 1992 Renault 9 GTE BROADWAY Çanakkale 6.5.2026 15:30 1.000 TL
181 2015 Dorse/Römork TIRSAN DORSE Kahramanmaraş 6.5.2026 15:30 1.000 TL
182 2015 Opel INSIGNIA NB 1.6D 136 AT6 COSMO İstanbul 6.5.2026 15:30 1.000 TL
183 2023 Honda CIVIC SEDAN 1.5 182 AT EXECUTIVE PLUS İzmir 6.5.2026 15:30 1.000 TL
184 2020 Fiat/Tofaş DOBLO COMBI SAFELINE 1.6 MULTIJET 105 İstanbul 6.5.2026 15:30 1.000 TL
185 2024 Togg T10X V2 RWD UZUN MENZIL 160KW İstanbul 6.5.2026 15:30 1.000 TL
186 2005 Dacia LOGAN AMBIANCE 1.4 Amasya 6.5.2026 15:30 1.000 TL
187 1996 Dorse/Römork TIRSAN YARI RÖMORK Gaziantep 6.5.2026 15:30 1.000 TL
188 2022 Renault TALIANT JOY 1.0 TURBO X-TRONIC 90 İstanbul 6.5.2026 15:30 1.000 TL
189 2025 Fiat/Tofaş EGEA CROSS LOUNGE 1.6 M.JET 130DCTGSR TRAC+ Malatya 6.5.2026 15:30 1.000 TL
190 2005 Honda CIVIC 1.6 LS VTEC 4 KAPI OV Kocaeli 6.5.2026 15:30 1.000 TL
191 2023 Iveco CEKICI S-WAY Mersin 6.5.2026 15:30 1.000 TL
192 2023 Motorsiklet TNT 125 PRO İzmir 6.5.2026 15:30 1.000 TL
193 2025 Citroen C4 X 1.2 PURETECH Samsun 6.5.2026 15:30 1.000 TL
194 2014 Opel CORSA 5 KAPI 1.2i TWINPORT ACTIVE EASYTRONIC Sivas 6.5.2026 15:30 1.000 TL
195 2024 Hyundai BAYON 1.4 MPI ELITE AT İstanbul 6.5.2026 15:30 1.000 TL
196 2012 Chevrolet CRUZE SEDAN 1.6 16V SPORT Ankara 6.5.2026 15:30 1.000 TL
197 2011 Hyundai ACCENT ERA 1.5 CRDi VGT SELECT (Y) Giresun 6.5.2026 15:30 1.000 TL
198 2006 Bmc KAMYON PRO 522 (6x2) LHT Şehir Seç 6.5.2026 15:30 1.000 TL
199 2024 Renault CLIO EVOLUTION 1.0 TCE X-TRONIC 90 Bolu 6.5.2026 15:30 1.000 TL
200 1997 Opel VECTRA 2.0 GLS Aydın 6.5.2026 15:30 1.000 TL
201 2025 Ford TOURNEO COURIER 1.5 D 100 DELUXE Ankara 6.5.2026 15:30 1.000 TL
202 2012 Ford TRANSIT 370L 13+1 MINIBUS (155) E4 GP İstanbul 6.5.2026 15:30 1.000 TL
203 2023 Ford FOCUS TITANIUM X 4K 1.5 ECOBLUE 115 8AT İstanbul 6.5.2026 15:30 1.000 TL
204 2021 Volkswagen T-ROC 1.5 TSI HIGHLINE Mersin 6.5.2026 15:30 1.000 TL
205 2025 Citroen JUMPER MİNİBÜS 16+1 4.2T 2.2 BLUEHDI 140 FL Bursa 6.5.2026 15:30 1.000 TL
206 2011 Fiat/Tofaş PANDA 1.2 ACTIVE (69) Uşak 6.5.2026 15:30 1.000 TL
207 2025 Opel CORSA 1.2 100 AT8 EDITION FL Sakarya 6.5.2026 15:30 1.000 TL
208 2021 Mitsubishi L200 CIFT KABIN KAMYONET 2.2 4x4 PREMIUM AT Ordu 6.5.2026 15:30 1.000 TL
209 2015 Volkswagen PASSAT 1.6 TDI BMT 120 COMFORTLINE DSG Ordu 6.5.2026 15:30 1.000 TL
210 2023 Ford CEKICI F-MAX COMFORT PLUS PACK Balıkesir 6.5.2026 15:30 1.000 TL
211 2025 Motorsiklet BORELLI 50 Kocaeli 6.5.2026 15:30 1.000 TL
212 2016 Ford FOCUS III MCA TREND X 1.5 TDCI 120 4K PWS Bursa 6.5.2026 15:30 1.000 TL
213 2025 Fiat/Tofaş DOBLO COMBI EASY 1.5 130 BLUEHDI FL AT Kahramanmaraş 6.5.2026 15:30 1.000 TL
214 2025 Otokar KAMYON ATLAS 9L GSRII UZUN 4X2 KLIMA Konya 6.5.2026 15:30 1.000 TL
215 2016 Opel INSIGNIA NB 1.6D AT6 SPORT İstanbul 6.5.2026 15:30 1.000 TL
216 2024 Ford TRAN.ICA3 350M KNET C.K 2.0 165 ORTATRENDKAS İstanbul 6.5.2026 15:30 1.000 TL
217 2024 Hyundai i20 FL 1.4 MPI 100 JUMP OV Bursa 6.5.2026 15:30 1.000 TL
218 2023 Fiat/Tofaş EGEA SEDAN URBAN 1.3 M.JET 95 E6D İstanbul 6.5.2026 15:30 1.000 TL
219 2021 Fiat/Tofaş DOBLO COMBI SAFELINE 1.6 M.JET 105 E6D İstanbul 6.5.2026 15:30 1.000 TL
220 2016 Dacia SANDERO STEPWAY 1.5 DCI 90 EURO5 Konya 6.5.2026 15:30 1.000 TL
221 2023 Chery OMODA 5 LUXURY Çorum 6.5.2026 15:30 1.000 TL
222 2018 Mini ONE D CLUBMAN 1.5 116 SALT Antalya 6.5.2026 15:30 1.000 TL
223 2012 Hyundai ix35 1.6 GDI 6MT 4X2 STYLE Ankara 6.5.2026 15:30 1.000 TL
224 2024 Ford FOCUS TITANIUM STIL 4K 1.5 ECOBLUE 115 8AT Batman 6.5.2026 15:30 1.000 TL
225 2021 Mercedes EQC 400 4MATIC ELECTRIC İstanbul 6.5.2026 15:30 1.000 TL
226 2024 Peugeot PARTNER VAN UZUN COMFORT 1.5 BLUEHDI 100 FL Trabzon 6.5.2026 15:30 1.000 TL
227 2025 Fiat/Tofaş SCUDO COMBI STD (L2) LOUNGE 2.0 MJ 145 Gaziantep 6.5.2026 15:30 1.000 TL
228 2013 Ford FIESTA TREND 5K 1.25i 82 Kayseri 6.5.2026 15:30 1.000 TL
229 2016 Skoda FABIA 1.2 TSI 110 DSG GREEN TEC STYLE Konya 6.5.2026 15:30 1.000 TL
230 2006 Hyundai H100 GRACE PANELVAN 2.6 (Y) İstanbul 6.5.2026 15:30 1.000 TL
231 1992 Renault BROADWAY L423 Bursa 6.5.2026 15:30 1.000 TL
232 2000 Fiat/Tofaş PALIO 1.4 EL Bursa 6.5.2026 15:30 1.000 TL
233 1995 Fiat/Tofaş SAHIN 5 VITES Gaziantep 6.5.2026 15:30 1.000 TL
234 2024 Fiat/Tofaş EGEA SEDAN EASY 1.6 MJET 130 DCT Erzurum 6.5.2026 15:30 1.000 TL
235 2011 Toyota COROLLA SEDAN 1.6 COMFORT EXT Aksaray 6.5.2026 15:30 1.000 TL
236 2025 Togg T10F V2 RWD UZUN MENZIL 160KW Konya 6.5.2026 15:30 1.000 TL
237 2013 Volvo S60 1.6 DRIVE ADVANCE POWERSHİFT Denizli 6.5.2026 15:30 1.000 TL
238 2015 Volkswagen TIGUAN 1.4 TSI 150 BMT DSG SPORTS STYLE DSG Edirne 6.5.2026 15:30 1.000 TL
239 2017 Volkswagen TRANSPORTER 2.0 TDI İstanbul 6.5.2026 15:30 1.000 TL
240 2023 Motorsiklet 250 DUKE Muğla 6.5.2026 15:30 1.000 TL
241 2022 Motorsiklet TRV Osmaniye 6.5.2026 15:30 1.000 TL
242 2013 Opel ASTRA HB 1.3 CDTI Düzce 6.5.2026 15:30 1.000 TL
243 2016 Seat LEON 1.6 TDI İzmir 6.5.2026 15:30 1.000 TL
244 2020 Zıraı Traktörx NIMET 75 LUKS Kastamonu 6.5.2026 15:30 1.000 TL
245 2024 Mercedes CEKICI ACTROS 1848 LS Gaziantep 6.5.2026 15:30 1.000 TL
246 2024 Ford RANGER 2.0 ECOBLUE Şehir Seç 6.5.2026 15:30 1.000 TL
247 2020 Kia BONGO TEK KABIN KAMYONET 2.5 DIZEL Antalya 6.5.2026 15:30 1.000 TL
248 2016 Dacia SANDERO STEPWAY 1.5 DCI İstanbul 6.5.2026 15:30 1.000 TL
249 1986 Ford TAUNUS 1.6 GL Ankara 6.5.2026 15:30 1.000 TL
250 2004 Volkswagen PASSAT 1.9 TDI Ankara 6.5.2026 15:30 1.000 TL
251 2014 Renault FLUENCE 1.5 DCI Kayseri 6.5.2026 15:30 1.000 TL
252 2012 Renault SYMBOL 1.2 İzmir 6.5.2026 15:30 1.000 TL
253 2015 Renault FLUENCE 1.5 DCI İstanbul 6.5.2026 15:30 1.000 TL
254 2013 Opel ASTRA SEDAN 1.3 CDTI İzmir 6.5.2026 15:30 1.000 TL
255 2016 Renault CLIO 1.5 DCI Iğdır 6.5.2026 15:30 1.000 TL
256 1997 Nissan TERRANO II 2.4 Kayseri 6.5.2026 15:30 1.000 TL
257 1996 Renault SPRİNG 1.4 Osmaniye 6.5.2026 15:30 1.000 TL
258 2023 Opel MOKKA 1.2 Muğla 6.5.2026 15:30 1.000 TL
259 2019 Fiat/Tofaş EGEA HB 1.4 FIRE Uşak 6.5.2026 15:30 1.000 TL
260 2022 Renault CLIO 1.0 TCE İstanbul 6.5.2026 15:30 1.000 TL
261 2004 Ford FIESTA 1.4 TDCİ Ankara 6.5.2026 15:30 1.000 TL
262 2003 Ford TRANSIT Erzurum 6.5.2026 15:30 1.000 TL
263 2008 Fiat/Tofaş LINEA 1.3 MULTIJET Erzincan 6.5.2026 15:30 1.000 TL
264 2004 Ford FOCUS 1,6 Kütahya 6.5.2026 15:30 1.000 TL
265 2011 Peugeot BİPPER KOMBİ COMFORT PLUS 1.4 HDI Batman 6.5.2026 15:30 1.000 TL
266 2025 Peugeot 408 ALLURE 1.2 PURETECH Trabzon 6.5.2026 15:30 1.000 TL
267 2023 Ford TOURNEO COURIER 1.5L TDCi Erzurum 6.5.2026 15:30 1.000 TL
268 2022 Volkswagen PASSAT 1.5 TSI 150 DSG Aksaray 6.5.2026 15:30 1.000 TL
269 2014 Volkswagen JETTA 1.6 TDI Ankara 6.5.2026 15:30 1.000 TL
270 2023 Fiat/Tofaş EGEA 1.3 MJET 95 EASY Kocaeli 6.5.2026 15:30 1.000 TL
271 2022 Fiat/Tofaş EGEA 1.6 MJET 130 EASY DCT İçel 6.5.2026 15:30 1.000 TL
272 2012 Dorse/Römork TENTELİ YARI RÖMORK Mardin 6.5.2026 15:30 1.000 TL
273 2023 Ford CEKICI F-MAX İzmir 6.5.2026 15:30 1.000 TL
274 2021 Volkswagen GOLF 1.0 eTSI Kahramanmaraş 6.5.2026 15:30 1.000 TL
275 2023 Motorsiklet BAJAJ PULSAR RS 200 İstanbul 6.5.2026 15:30 1.000 TL
276 2006 Ford KAMYON CARGO 3230S Hatay 6.5.2026 15:30 1.000 TL
277 1996 Renault R 1339 Konya 6.5.2026 15:30 1.000 TL
278 2023 Fiat/Tofaş EGEA CROSS 1.4 FIRE Ankara 6.5.2026 15:30 1.000 TL
279 2025 Skoda SUPERB 1.5 TSI MHEV Ankara 6.5.2026 15:30 1.000 TL
280 2023 Renault MEGANE SEDAN 1.3 TCE Kocaeli 6.5.2026 15:30 1.000 TL
281 2018 Fiat/Tofaş FIORINO COMBI POP 1.3 M.JET İstanbul 6.5.2026 15:30 1.000 TL
282 2000 Fiat/Tofaş PALIO 1.4 EL Kayseri 6.5.2026 15:30 1.000 TL
283 2015 Honda HONDA SCR 110 Muğla 6.5.2026 15:30 1.000 TL
284 2016 Renault SYMBOL JOY 1.5 DCI 90 İstanbul 6.5.2026 15:30 1.000 TL
285 2004 Fiat/Tofaş PALIO VAN 1.3 MULTIJET İzmir 6.5.2026 15:30 1.000 TL
286 2022 Honda HONDA NSC 110 Bursa 6.5.2026 15:30 1.000 TL
287 2024 Motorsiklet RKS 125 R İstanbul 6.5.2026 15:30 1.000 TL
288 2016 Dacia SANDERO STEPWAY 1.5 DCI İzmir 6.5.2026 15:30 1.000 TL
289 1994 Renault BROADWAY 1.4 Düzce 6.5.2026 15:30 1.000 TL
290 2007 Hyundai ACCENT ERA 1.4 SELECT Ankara 6.5.2026 15:30 1.000 TL
291 1999 Renault MEGANE 1.6E İstanbul 6.5.2026 15:30 1.000 TL
292 2023 Ford PUMA 1.0 ECOBOOST Sakarya 6.5.2026 15:30 1.000 TL
293 2023 Mercedes CEKICI ACTROS Kayseri 6.5.2026 15:30 1.000 TL
294 1993 Fiat/Tofaş TEMPRA 1.6 SX-A Ankara 6.5.2026 15:30 1.000 TL
295 2005 Motorsiklet YBR 125 Antalya 6.5.2026 15:30 1.000 TL
296 2014 Opel CORSA 1.3 CDTi Şehir Seç 6.5.2026 15:30 1.000 TL
297 2004 Volkswagen T.PORTER CITYVAN 2.5 TDI Antalya 6.5.2026 15:30 1.000 TL
298 2011 Renault SYMBOL EXPRESSION 1.5 DCI Rize 6.5.2026 15:30 1.000 TL
299 2012 Chevrolet CAPTIVA 2.0 D Siirt 6.5.2026 15:30 1.000 TL
300 1988 Mercedes 200 (ESKI MODEL) Sakarya 6.5.2026 15:30 1.000 TL
301 2021 Ford TRANSIT KAMYONET 350ED İstanbul 6.5.2026 15:30 1.000 TL
302 2023 Motorsiklet MATI 125 İstanbul 6.5.2026 15:30 1.000 TL
303 2024 Motorsiklet PULSAR RS 200 Eskişehir 6.5.2026 15:30 1.000 TL
304 2024 Citroen C4 X 1.2 PURETECH Şanlıurfa 6.5.2026 15:30 1.000 TL
305 2016 Ford FOCUS III MCA 1.5 TDCI Eskişehir 6.5.2026 15:30 1.000 TL
306 2018 Volkswagen PASSAT 1.4 TSI Gaziantep 6.5.2026 15:30 1.000 TL
307 1999 Toyota AVENSIS 2.0 SEDAN Şehir Seç 6.5.2026 15:30 1.000 TL
308 2024 Motorsiklet 250 SR Ankara 6.5.2026 15:30 1.000 TL
309 2020 Seat ARONA 1.0 ECOTSI Konya 6.5.2026 15:30 1.000 TL
310 2012 Hyundai ACCENT ERA 1.6 MODE Ankara 6.5.2026 15:30 1.000 TL
311 2017 Dacia DUSTER 1.5 DCI Kastamonu 6.5.2026 15:30 1.000 TL
312 2023 Dorse/Römork ADİL SERT DORSE YARI RÖMORK Osmaniye 6.5.2026 15:30 1.000 TL
313 2009 Scania CEKICI R 420 CA İzmir 6.5.2026 15:30 1.000 TL
314 2016 Ford TRANSIT CONNECT VAN İstanbul 6.5.2026 15:30 1.000 TL
315 2025 Honda PCX 125 DLX Kocaeli 6.5.2026 15:30 1.000 TL
316 1996 Mazda 323 SEDAN 1.6 DV Antalya 6.5.2026 15:30 1.000 TL
317 2022 Honda DIO 110 Tekirdağ 6.5.2026 15:30 1.000 TL
318 2000 Hyundai ACCENT 1.3 LX SEDAN Şehir Seç 6.5.2026 15:30 1.000 TL
319 2024 Bmw R 1250 GS ADVENTURE Kayseri 6.5.2026 15:30 1.000 TL
320 1995 Renault BROADWAY Denizli 6.5.2026 15:30 1.000 TL
321 2005 Opel CORSA VAN 1.3 CDTi Adana 6.5.2026 15:30 1.000 TL
322 2023 Motorsiklet RAIDER 125 Hatay 6.5.2026 15:30 1.000 TL
323 2013 Fiat/Tofaş LINEA 1.3 MULTIJET 95 Samsun 6.5.2026 15:30 1.000 TL
324 2004 Renault MEGANE II SEDAN 1.6 Kayseri 6.5.2026 15:30 1.000 TL
325 2018 Fiat/Tofaş EGEA 1.6 E-TORQ 110 Aydın 6.5.2026 15:30 1.000 TL
326 2002 Opel VECTRA Antalya 6.5.2026 15:30 1.000 TL
327 1992 Fiat/Tofaş DOĞAN 1.6 Aksaray 6.5.2026 15:30 1.000 TL
328 2024 Motorsiklet SYM JETX 125 İstanbul 6.5.2026 15:30 1.000 TL
329 2024 Motorsiklet FALCON 125 Antalya 6.5.2026 15:30 1.000 TL
330 2004 Opel VECTRA 1.6i Şanlıurfa 6.5.2026 15:30 1.000 TL
331 2013 Mercedes SPRINTER OTOBUS 416 CDI 22+1 Antalya 6.5.2026 15:30 1.000 TL
332 2026 Motorsiklet 125 DRIFT L İstanbul 6.5.2026 15:30 1.000 TL
333 1998 Ford ESCORT 1.6 CLX Konya 6.5.2026 15:30 1.000 TL
334 2007 Dorse/Römork ARITAŞ AR LNG-40 YARI RÖMORK TANKER KASA Gaziantep 6.5.2026 15:30 1.000 TL
335 2012 Fiat/Tofaş FIORINO COMBI 1.3 M.JET 75 ACTIVE Antalya 6.5.2026 15:30 1.000 TL
336 2025 Mercedes AMG CLA 45 S 4MATIC+ İstanbul 6.5.2026 15:30 1.000 TL
337 2009 Volkswagen CADDY KOMBI 1.9 TDI Kastamonu 6.5.2026 15:30 1.000 TL
338 2017 Ford TRANSIT 350 L VAN Batman 6.5.2026 15:30 1.000 TL
339 2022 Skoda SUPERB 1.5 TSI Sakarya 6.5.2026 15:30 1.000 TL
340 2019 Renault CLIO HB 0.9 TCE Şehir Seç 6.5.2026 15:30 1.000 TL
341 2016 Fiat/Tofaş FIORINO CARGO 1.3 M.JET Kayseri 6.5.2026 15:30 1.000 TL
342 2024 Renault MEGANE SEDAN 1.3 TCE Karabük 6.5.2026 15:30 1.000 TL
343 2017 Scania R 450 Bursa 6.5.2026 15:30 1.000 TL
344 2024 Benellı 125S Ankara 6.5.2026 15:30 1.000 TL
345 1997 Kia SEPHIA 1.6 L GTX Isparta 6.5.2026 15:30 1.000 TL
346 2022 Fiat/Tofaş EGEA SEDAN EASY 1.3 M.JET Antalya 6.5.2026 15:30 1.000 TL
347 2004 Fiat/Tofaş DOBLO 1.9 JTD Antalya 6.5.2026 15:30 1.000 TL
348 2025 Motorsiklet LAVINIA PRO 125 Şehir Seç 6.5.2026 15:30 1.000 TL
349 2023 Motorsiklet MAX T 150 Tekirdağ 6.5.2026 15:30 1.000 TL
350 2017 Volkswagen JETTA 1.2 TSI BMT 105 Denizli 6.5.2026 15:30 1.000 TL
351 2025 Motorsiklet JETX 125 İzmir 6.5.2026 15:30 1.000 TL
352 2011 Peugeot PARTNER TEPEE 1.6 HDI Konya 6.5.2026 15:30 1.000 TL
353 1998 Opel VECTRA 1.6 Malatya 6.5.2026 15:30 1.000 TL
354 2023 Renault MEGANE 1,3 TCE İzmir 6.5.2026 15:30 1.000 TL
355 2009 Hyundai GETZ 1.5 CRDi VGT START Kastamonu 6.5.2026 15:30 1.000 TL
356 2024 Honda SH125AD Aydın 6.5.2026 15:30 1.000 TL
357 2012 Ford FOCUS 1,6 TDCİ TİTANIUM Şehir Seç 6.5.2026 15:30 1.000 TL
358 2004 Iveco KAMYON 80 12 Denizli 6.5.2026 15:30 1.000 TL
359 1996 Renault 12 TSW Amasya 6.5.2026 15:30 1.000 TL
360 2023 Togg T10X V2 RWD UZUN MENZIL 160KW İstanbul 6.5.2026 15:30 1.000 TL
361 2023 Tesla MODEL Y LONG RANGE İstanbul 6.5.2026 15:30 1.000 TL
362 2005 Hyundai ELANTRA 1.6 Ankara 6.5.2026 15:30 1.000 TL
363 2016 Fiat/Tofaş EGEA SEDAN 1.6 E-TORQ Şanlıurfa 6.5.2026 15:30 1.000 TL
364 2013 Dorse/Römork YARI RÖMORK Konya 6.5.2026 15:30 1.000 TL
365 2024 Fiat/Tofaş EGEA 1,4 FİRE Konya 6.5.2026 15:30 1.000 TL
366 2012 Mercedes AXOR 1840 LS Mardin 6.5.2026 15:30 1.000 TL
367 2015 Ford TRANSIT KAMYONET Gaziantep 6.5.2026 15:30 1.000 TL
368 2013 Ford CARGO 1838T Diyarbakır 6.5.2026 15:30 1.000 TL
369 2011 Audi A4 2.0 TDI MULTITRONIC Konya 6.5.2026 15:30 1.000 TL
370 2011 Dacia LOGAN 1.5 DCI BLACKLINE Samsun 6.5.2026 15:30 1.000 TL
371 2014 Bmw 116i İstanbul 6.5.2026 15:30 1.000 TL
372 2020 Honda SCR 110 5WH Eskişehir 6.5.2026 15:30 1.000 TL
373 2024 Tesla MODEL Y RWD STANDART RANGE İzmir 6.5.2026 15:30 1.000 TL
374 2014 Audi A3 SPORTBACK 1.6 TDI 110 İstanbul 6.5.2026 15:30 1.000 TL
375 2011 Mercedes ACTROS 1844 LS Mardin 6.5.2026 15:30 1.000 TL
376 2012 Mercedes AXOR 1840 LS Antalya 6.5.2026 15:30 1.000 TL
377 2017 Renault MEGANE SEDAN JOY 1.5 DCI İstanbul 6.5.2026 15:30 1.000 TL
378 2010 Ford TRANSIT 300 S KOMBI Ankara 6.5.2026 15:30 1.000 TL
379 2010 Ford FIESTA TREND 1.4 TDCI Aksaray 6.5.2026 15:30 1.000 TL
380 2025 Peugeot 2008 1.2 PURETECH Aksaray 6.5.2026 15:30 1.000 TL
381 2012 Fiat/Tofaş LINEA 1.3 MULTIJET Adana 6.5.2026 15:30 1.000 TL
382 2005 Renault MEGANE WAGON AUT. 1.6 Adana 6.5.2026 15:30 1.000 TL
383 2025 Renault KANGOO VAN EQUILIBRE 1.5 BLUEDCI Adana 6.5.2026 15:30 1.000 TL
384 2024 Honda ACTİVA 125 Muğla 6.5.2026 15:30 1.000 TL
385 2020 Motorsiklet SPONTINI 110 (GST110T-14) İstanbul 6.5.2026 15:30 1.000 TL
386 2024 Renault MEGANE E-TECH İzmir 6.5.2026 15:30 1.000 TL
387 2019 Fiat/Tofaş EGEA SEDAN 1.4 FIRE 95 İzmir 6.5.2026 15:30 1.000 TL
388 2006 Fiat/Tofaş DOBLO COMBI 1.3 MULTIJET Düzce 6.5.2026 15:30 1.000 TL
389 2011 Dacia LOGAN 1.5 DCI Bursa 6.5.2026 15:30 1.000 TL
390 2024 Ford FOCUS 1.5 ECOBLUE 115 İstanbul 6.5.2026 15:30 1.000 TL
391 2024 Honda ACTIVA 125 Bolu 6.5.2026 15:30 1.000 TL
392 1999 Ford FIESTA 1.25i Şehir Seç 6.5.2026 15:30 1.000 TL
393 2007 Honda CIVIC SEDAN 1.6 Konya 6.5.2026 15:30 1.000 TL
394 2010 Volkswagen JETTA 1.6 TDI Şehir Seç 6.5.2026 15:30 1.000 TL
395 1994 Fiat/Tofaş TEMPRA S Samsun 6.5.2026 15:30 1.000 TL
396 2021 Honda DİO 110 Muğla 6.5.2026 15:30 1.000 TL
397 2025 Motorsiklet VN50 PRO İstanbul 6.5.2026 15:30 1.000 TL
398 2023 Motorsiklet VESPA GTS Şehir Seç 6.5.2026 15:30 1.000 TL
399 1996 Fiat/Tofaş DOGAN SLX Afyonkarahisar 6.5.2026 15:30 1.000 TL
400 2013 Skoda FABIA HB 1.6 TDI Mersin 6.5.2026 15:30 1.000 TL
401 2012 Motorsiklet ELITE 100 Karaman 6.5.2026 15:30 1.000 TL
402 2017 Motorsiklet X-MAX 250 Mersin 6.5.2026 15:30 1.000 TL
403 2011 Ford T. CONNECT KOMBI K210S 1.8 TDCi Şehir Seç 6.5.2026 15:30 1.000 TL
404 2025 Motorsiklet MT 25 Tekirdağ 6.5.2026 15:30 1.000 TL
405 2011 Peugeot 308 COMFORT 1.6 HDI Tokat 6.5.2026 15:30 1.000 TL
406 2022 Motorsiklet CEO 110 Şehir Seç 6.5.2026 15:30 1.000 TL
407 2012 Honda FIZY 125 İstanbul 6.5.2026 15:30 1.000 TL
408 2024 Honda CRF 1100L AFRICA TWIN Antalya 6.5.2026 15:30 1.000 TL
409 2025 Honda FORZA 250 İstanbul 6.5.2026 15:30 1.000 TL
410 2023 Peugeot PM-01 125 Balıkesir 6.5.2026 15:30 1.000 TL
411 2025 Motorsiklet AZ50 Kocaeli 6.5.2026 15:30 1.000 TL
412 2023 Motorsiklet DRGBT Gaziantep 6.5.2026 15:30 1.000 TL
413 2000 Hyundai ACCENT 1.3 LS Tokat 6.5.2026 15:30 1.000 TL
414 2023 Kia STONIC 1.4 Balıkesir 6.5.2026 15:30 1.000 TL
415 2005 Renault CLIO SEDAN 1.4 Gaziantep 6.5.2026 15:30 1.000 TL
416 2019 Motorsiklet X-MAX 250 Balıkesir 6.5.2026 15:30 1.000 TL
417 2016 Renault CLIO HB JOY 1.2 Hatay 6.5.2026 15:30 1.000 TL
418 1995 Ford ESCORT 1,6 CL Amasya 6.5.2026 15:30 1.000 TL
419 2005 Opel CORSA 1.2 TWINPORT ENJOY Gaziantep 6.5.2026 15:30 1.000 TL
420 2024 Motorsiklet AR 06 Şehir Seç 6.5.2026 15:30 1.000 TL
421 2013 Bmw 320d SEDAN Eskişehir 6.5.2026 15:30 1.000 TL
422 2010 Fiat/Tofaş LINEA 1.3 MULTIJET Kayseri 6.5.2026 15:30 1.000 TL
423 2009 Renault SYMBOL 1.4 75 Uşak 6.5.2026 15:30 1.000 TL
424 2017 Fiat/Tofaş EGEA 1.6 M.JET 120 İstanbul 6.5.2026 15:30 1.000 TL
425 2023 Fiat/Tofaş EGEA SEDAN 1.6 M.JET 130 DCT Kocaeli 6.5.2026 15:30 1.000 TL
426 2009 Renault KANGOO MULTIX 1.5 DCI Uşak 6.5.2026 15:30 1.000 TL
427 2025 Peugeot RIFTER 1.5 BLUEHDI ALLURE Kocaeli 6.5.2026 15:30 1.000 TL
428 2023 Chery TIGGO 8 PRO 1.6 T-GDI Kayseri 6.5.2026 15:30 1.000 TL
429 2012 Volvo S40 1.6 D Gaziantep 6.5.2026 15:30 1.000 TL
430 2023 Motorsiklet JUPITER 110 İzmir 6.5.2026 15:30 1.000 TL
431 2008 Suzuki JIMNY 1.3 Antalya 6.5.2026 15:30 1.000 TL
432 2020 Ford F-MAX Malatya 6.5.2026 15:30 1.000 TL
433 2016 Opel INSIGNIA NB 1.6 CDTI İstanbul 6.5.2026 15:30 1.000 TL
434 2008 Mercedes VİTO 111 CDI Şehir Seç 6.5.2026 15:30 1.000 TL
435 2024 Motorsiklet DELIGHT Antalya 6.5.2026 15:30 1.000 TL
436 2012 Volkswagen PASSAT 2.0 TDI BMT Samsun 6.5.2026 15:30 1.000 TL
437 2013 Ford FIESTA TREND 1.25i Ankara 6.5.2026 15:30 1.000 TL
438 2016 Dacia SANDERO STEPWAY 1.5 DCI İstanbul 6.5.2026 15:30 1.000 TL
439 2009 Fiat/Tofaş 500 LOUNGE 1.4 Tekirdağ 6.5.2026 15:30 1.000 TL
440 2025 Dacia SANDERO STEPWAY EXPRESSION TCE 90 CVT Nevşehir 6.5.2026 15:30 1.000 TL
441 2019 Ford TRANSIT KAMYONET İzmir 6.5.2026 15:30 1.000 TL
442 2025 Peugeot 2008 1.2 PURETECH Bursa 6.5.2026 15:30 1.000 TL
443 2014 Seat IBIZA 1.4 Manisa 6.5.2026 15:30 1.000 TL
444 2011 Renault MASTER PANELVAN Sakarya 6.5.2026 15:30 1.000 TL
445 2006 Ford FOCUS 1.6 TDCi İzmir 6.5.2026 15:30 1.000 TL
446 2023 Motorsiklet RS 660 Karaman 6.5.2026 15:30 1.000 TL
447 2021 Volkswagen POLO 1.0 TSI Sakarya 6.5.2026 15:30 1.000 TL
448 2004 Hyundai GETZ 1.3 GLS Kayseri 6.5.2026 15:30 1.000 TL
449 2022 Bmw 320i İstanbul 6.5.2026 15:30 1.000 TL
450 2017 Skoda KODIAQ 1.4 TSI Ankara 6.5.2026 15:30 1.000 TL
451 2020 Renault CLIO JOY 1.0 TCE X-TRONIC İstanbul 6.5.2026 15:30 1.000 TL
452 2020 Toyota COROLLA 1.8 HYBRID Edirne 6.5.2026 15:30 1.000 TL
453 2014 Renault CLIO 90 Balıkesir 6.5.2026 15:30 1.000 TL
454 2017 Hyundai TUCSON 1.6 T-GDI İstanbul 6.5.2026 15:30 1.000 TL
455 2020 Bmw 216d Gaziantep 6.5.2026 15:30 1.000 TL
456 2006 Peugeot 206 1.4 Konya 6.5.2026 15:30 1.000 TL
457 1991 Fiat/Tofaş ŞAHİN 1.6 Kayseri 6.5.2026 15:30 1.000 TL
458 2024 Volkswagen CRAFTER MINIBUS Antalya 6.5.2026 15:30 1.000 TL
459 2021 Honda PCX 125 İstanbul 6.5.2026 15:30 1.000 TL
460 2024 Honda FORZA 250 İstanbul 6.5.2026 15:30 1.000 TL
461 2018 Honda CIVIC SEDAN 1.6 (125) OV İzmir 6.5.2026 15:30 1.000 TL
462 1992 Renault R9 SPRING 1.4 İzmir 6.5.2026 15:30 1.000 TL
463 2024 Motorsiklet BLUEBIRD 50 Antalya 6.5.2026 15:30 1.000 TL
464 2018 Mercedes VITO TOURER 111 CDI Ankara 6.5.2026 15:30 1.000 TL
465 2000 Renault CLIO 1.6i RTE OV Antalya 6.5.2026 15:30 1.000 TL
466 2025 Dorse/Römork Schmitz Cargobull FRİGOFRİK YARI RÖMORK Antalya 6.5.2026 15:30 TL
467 2023 Peugeot DJANGO 125 İzmir 6.5.2026 15:30 1.000 TL
468 2015 Volkswagen JETTA 1.6 TDI Iğdır 6.5.2026 15:30 1.000 TL
469 2024 Motorsiklet PULSAR RS 200 Batman 6.5.2026 15:30 1.000 TL
470 2012 Ford FIESTA 1.4 Şanlıurfa 6.5.2026 15:30 1.000 TL
471 2011 Daf CEKICI FT 105 XF 460 4x2 Ankara 6.5.2026 15:30 1.000 TL
472 2012 Ford FIESTA 1.4 Şanlıurfa 6.5.2026 15:30 1.000 TL
473 2024 Motorsiklet PULSAR RS 200 Batman 6.5.2026 15:30 1.000 TL
474 2015 Volkswagen JETTA 1.6 TDI Iğdır 6.5.2026 15:30 1.000 TL
475 2025 Dorse/Römork Schmitz Cargobull FRİGOFRİK YARI RÖMORK Antalya 6.5.2026 15:30 TL
476 2000 Renault CLIO 1.6i RTE OV Antalya 6.5.2026 15:30 1.000 TL
477 2023 Peugeot DJANGO 125 İzmir 6.5.2026 15:30 1.000 TL
478 2011 Daf CEKICI FT 105 XF 460 4x2 Ankara 6.5.2026 15:30 1.000 TL
479 2016 Peugeot 301 1.6 HDI İstanbul 6.5.2026 15:30 1.000 TL
480 2023 Honda DIO Aydın 6.5.2026 15:30 1.000 TL
481 2001 Renault MEGANE 1,6 RTE İzmir 6.5.2026 15:30 1.000 TL
482 2011 Renault CLIO HB Adana 6.5.2026 15:30 1.000 TL
483 2015 Volvo S60 1.6 D2 Şanlıurfa 6.5.2026 15:30 1.000 TL
484 2009 Renault KOLEOS 2.0 DCI (150) PRİV. Ankara 6.5.2026 15:30 1.000 TL
485 2025 Motorsiklet RSX5 150 Ankara 6.5.2026 15:30 1.000 TL
486 2024 Motorsiklet TK 03 İstanbul 6.5.2026 15:30 1.000 TL
487 1990 Fiat/Tofaş 124 Serçe İstanbul 6.5.2026 15:30 1.000 TL
488 2024 Opel COMBO 1.5 DIZEL Kayseri 6.5.2026 15:30 1.000 TL
489 2023 Ford TRANSIT 350M CIFT KABIN KAMYONET Ordu 6.5.2026 15:30 1.000 TL
490 2022 Skoda SUPERB 1.5 TSI Adana 6.5.2026 15:30 1.000 TL
491 2013 Ford FIESTA 1.4 Kayseri 6.5.2026 15:30 1.000 TL
492 2017 Honda CIVIC SEDAN 1.6İ VTEC Ankara 6.5.2026 15:30 1.000 TL
493 2015 Mercedes CEKICI AXOR 1840 LS E5 Aksaray 6.5.2026 15:30 1.000 TL
494 2006 Honda BEAT 100 Antalya 6.5.2026 15:30 1.000 TL
495 2024 Motorsiklet 250 SR İstanbul 6.5.2026 15:30 1.000 TL
496 2009 Opel ASTRA 1.3 CDTi ESSENTİA (90) İstanbul 6.5.2026 15:30 1.000 TL
497 2003 Renault MEGANE 1.9 DTI Ordu 6.5.2026 15:30 1.000 TL
498 2025 Toyota COROLLA 1.5 Mersin 6.5.2026 15:30 1.000 TL
499 2021 Fiat/Tofaş EGEA CROSS 1.4 FİRE 95 Kocaeli 6.5.2026 15:30 1.000 TL
500 1996 Hyundai ELANTRA 1.8 Samsun 6.5.2026 15:30 1.000 TL
501 2005 Hyundai ACCENT 1.3 ADMIRE Kastamonu 6.5.2026 15:30 1.000 TL
502 2006 Dacia LOGAN AMBIANCE PACK 1.4 Denizli 6.5.2026 15:30 1.000 TL
503 2022 Skoda SUPERB 1.5 TSI 150 DSG Çorum 6.5.2026 15:30 1.000 TL
504 1999 Renault BROADWAY 1.4 İstanbul 6.5.2026 15:30 1.000 TL
505 2015 Ford FİESTA 1.5 TDCI 75 İstanbul 6.5.2026 15:30 1.000 TL
506 2011 Motorsiklet 100 SFC BASIC X İzmir 6.5.2026 15:30 1.000 TL
507 1992 Fiat/Tofaş KARTAL 1.6 Aydın 6.5.2026 15:30 1.000 TL
508 2015 Volkswagen PASSAT 1.6 TDI BMT 120 DSG Şehir Seç 6.5.2026 15:30 1.000 TL
509 2022 Honda WW125A İstanbul 6.5.2026 15:30 1.000 TL
510 2025 Opel GRANDLAND 1.2 HYBRID 136 İstanbul 6.5.2026 15:30 1.000 TL
511 2004 Toyota COROLLA 1.6 SOL HB Şehir Seç 6.5.2026 15:30 1.000 TL
512 2016 Ford FOCUS 1,5 TDCİ Kahramanmaraş 6.5.2026 15:30 1.000 TL
513 2022 Motorsiklet MTN 250-A Kayseri 6.5.2026 15:30 1.000 TL
514 2012 Volkswagen POLO 1.4 Antalya 6.5.2026 15:30 1.000 TL
515 2025 Motorsiklet STRADA 125 Kayseri 6.5.2026 15:30 1.000 TL
516 2023 Motorsiklet X-MAX 250 Muğla 6.5.2026 15:30 1.000 TL
517 2011 Nissan JUKE 1.5 DCI VISIA Mersin 6.5.2026 15:30 1.000 TL
518 2008 Opel CORSA VAN 1.3 CDTi Konya 6.5.2026 15:30 1.000 TL
519 2009 Volkswagen JETTA Samsun 6.5.2026 15:30 1.000 TL
520 2024 Honda CBR 650 RA Kayseri 6.5.2026 15:30 1.000 TL
521 2001 Renault MEGANE 1.6 Konya 6.5.2026 15:30 1.000 TL
522 2005 Renault MEGANE 1,6 Şanlıurfa 6.5.2026 15:30 1.000 TL
523 2024 Ford TOURNEO COURİER 1.5 ECOBLUE TREND Ankara 6.5.2026 15:30 1.000 TL
524 2013 Dorse/Römork MERTTAŞ TIR SANAYİ MERTAŞ RÖMORK Elazığ 6.5.2026 15:30 1.000 TL
525 2024 Motorsiklet HONDA ACTIVA125 Düzce 6.5.2026 15:30 1.000 TL
526 2023 Togg T10X V2 RWD UZUN MENZIL 160KW Konya 6.5.2026 15:30 1.000 TL
527 2025 Hyundai I20 1.0 T—GDI JUMP İstanbul 6.5.2026 15:30 1.000 TL
528 2022 Dacia SANDERO STEPWAY PRESTIGE 1.0 TURBO XTRONIC 90 İstanbul 6.5.2026 15:30 1.000 TL
529 2016 Fiat/Tofaş FIORINO CARGO 1.3 M.JET Kocaeli 6.5.2026 15:30 1.000 TL
530 2023 Motorsiklet HONDA WW 125 A İstanbul 6.5.2026 15:30 1.000 TL
531 2007 Ford T.CONNECT VAN 1,8 İstanbul 6.5.2026 15:30 1.000 TL
532 2004 Opel MERIVA 1.6 Ankara 6.5.2026 15:30 1.000 TL
533 2008 Mitsubishi COLT 1.3 Sakarya 6.5.2026 15:30 1.000 TL
534 2007 Nissan MICRA 1.2 Adana 6.5.2026 15:30 1.000 TL
535 2012 Opel ASTRA HB 1.4 Konya 6.5.2026 15:30 1.000 TL
536 2010 Audi A6 2.0 TDI Kocaeli 6.5.2026 15:30 1.000 TL
537 2019 Ford TRANSIT VAN 2.0 İstanbul 6.5.2026 15:30 1.000 TL
538 2025 Renault MEGANE 1.3 TCE Tekirdağ 6.5.2026 15:30 1.000 TL
539 2025 Peugeot 2008 1.2 İstanbul 6.5.2026 15:30 1.000 TL
540 2025 Dorse/Römork SCHMITZ CARGOBULL YARI ROMORK Erzincan 6.5.2026 15:30 1.000 TL
541 2023 Scania S540 Konya 6.5.2026 15:30 1.000 TL
542 2012 Seat IBIZA 1.2 TSI (105) STYLE İstanbul 6.5.2026 15:45 478.000 TL
543 2018 Toyota COROLLA 1.4 D-4D ADVANCE M/M Ankara 6.5.2026 15:45 662.500 TL
544 2024 Fiat/Tofaş EGEA SEDAN EASY 1.4 FIRE 95 İstanbul 6.5.2026 15:45 522.000 TL
545 2022 Dacia SANDERO COMFORT 1.0 TURBO X-TRONIC 90 İstanbul 6.5.2026 15:45 547.500 TL
546 2015 Volkswagen POLO 1.4 TDI 90 COMFORTLINE TIPTRONIC Ankara 6.5.2026 15:45 567.500 TL
547 2016 Toyota YARIS 1.33 STYLE X-TREND MULTIDRIVE S Ankara 6.5.2026 15:45 546.000 TL
548 2015 Ford FOCUS III MCA TREND X 1.6 TDCI 95 5K Ankara 6.5.2026 15:45 574.500 TL
549 2023 Dacia SANDERO STEPWAY ESSENTIAL TCE 90 CVT Ankara 6.5.2026 15:45 484.500 TL
550 2020 Dacia DUSTER COMFORT 1.5 BLUE DCI 115 4x4 Sinop 6.5.2026 15:45 471.500 TL
551 2011 Scania CEKICI G 420 Samsun 6.5.2026 15:45 484.000 TL
552 2025 Togg T10F V2 Antalya 6.5.2026 15:45 525.500 TL
553 2012 Opel INSIGNIA HB COSMO 2.8 (260) 4x4 OV İstanbul 6.5.2026 15:45 485.000 TL
554 2020 Renault MEGANE SEDAN TOUCH 1.5 BLUEDCI 115 Ankara 6.5.2026 16:00 670.000 TL
555 2023 Volvo S90 2.0 B5 AWD PLUS BRIGHT 2.0 235 GEARTRONIC Antalya 6.5.2026 16:30 3.050.000 TL
556 2023 Volvo V90 CROSS COUNTRY ULTIMATE BRIGHT İstanbul 6.5.2026 16:30 1.765.000 TL
557 2019 Kia RIO 1.25 Samsun 6.5.2026 16:30 370.000 TL
558 2012 Seat IBIZA 1.2 TSI (105) STYLE DSG İzmir 6.5.2026 16:30 343.750 TL
559 2012 Bmw X6 XDRIVE 40d İstanbul 6.5.2026 16:30 645.500 TL
560 2014 Volkswagen PASSAT 1.6 TDI BMT Mersin 6.5.2026 16:30 1.050.000 TL
561 2025 Kia XCEED ELEGANCE 1.5 140 DCT Muğla 6.5.2026 16:30 969.250 TL
562 2024 Ford TRAN.ICA3 350LF VAN 11.5M3 2.0 165UZUNTREND Iğdır 6.5.2026 16:30 725.250 TL
563 2020 Opel CROSSLAND X 1.5 DIZEL 120 S&S AT6 EXCELENCE İstanbul 6.5.2026 16:30 722.250 TL
564 2013 Volkswagen GOLF 1.2 TSI BMT 105 DSG İstanbul 6.5.2026 16:30 645.250 TL
565 2021 Renault CLIO 1,0 TCe İstanbul 6.5.2026 16:30 549.250 TL
566 2014 Dacia DUSTER 1.5 DCI 90 4x2 Muğla 6.5.2026 16:30 535.250 TL
567 2003 Citroen BERLINGO 1.9 D Edirne 6.5.2026 16:30 49.250 TL
568 2020 Fiat/Tofaş DOBLO COMBI MAXİ PREMIO+ 1.6 MJET 120 E6D Bursa 6.5.2026 16:30 447.250 TL
569 2011 Fiat/Tofaş PUNTO EVO DYNAMIC 1.4 FIRE İstanbul 6.5.2026 16:30 351.250 TL
570 2017 Renault CLIO HB 1.5 DCI Tekirdağ 6.5.2026 16:30 333.250 TL
571 2022 Hyundai i20 N 1.6 T-GDI (204) İstanbul 6.5.2026 16:30 975.000 TL
572 2025 Ford TRANSIT COURIER VAN 1.5 İstanbul 6.5.2026 16:30 500.000 TL
573 1992 Fiat/Tofaş ŞAHİN 1.6 İstanbul 6.5.2026 16:30 10.000 TL
574 2012 Volkswagen CADDY KOMBI 1.6 TDI 102 COMFORTLINE DSG İstanbul 6.5.2026 16:30 500.000 TL
575 2023 Citroen C3 SHINE 1.2 PURETECH 110 EAT6 İstanbul 6.5.2026 16:30 675.000 TL
576 2018 Bmw 418i GRAN COUPE 1.5 136 İstanbul 6.5.2026 16:30 1.125.000 TL
577 2024 Hyundai BAYON FL 1.0 T-GDI 100 ELITE DCT İstanbul 6.5.2026 16:30 870.000 TL
578 2025 Peugeot 2008 GT 1.2 PURETECH 130 EAT8 FL İstanbul 6.5.2026 16:30 1.049.000 TL
579 2015 Hyundai i20 1.2 MPI ELITE PANORAMA İstanbul 6.5.2026 16:30 450.000 TL
580 2024 Volkswagen TRANSPORTER PANELVAN 2+1 LWB 110 İstanbul 6.5.2026 16:30 700.000 TL
581 2012 Mercedes AXOR 1840 LS Mardin 6.5.2026 16:30 535.000 TL
582 2005 Ford TRANSIT CONNECT K210 S 1,8 TDCİ Çanakkale 6.5.2026 16:30 5.000 TL
583 2008 Citroen JUMPER 2,2 HDI İstanbul 6.5.2026 16:30 1.000 TL
584 2024 Ford TOURNEO COURIER 1.5 D Ankara 6.5.2026 16:30 110.000 TL
585 2008 Citroen C4 SEDAN 1.6 HDI SX Bursa 6.5.2026 16:30 1.000 TL
586 2014 Mercedes AXOR 1840 LS Mardin 6.5.2026 16:30 500 TL
587 2024 Ford FOCUS 1,5 EcoBlue Antalya 6.5.2026 16:30 150.000 TL
588 1997 Bmw 318 iS/4 İstanbul 6.5.2026 16:30 1.000 TL
589 2008 Toyota YARIS 1.3 SOL M/M Manisa 6.5.2026 16:30 200.000 TL
590 2023 Mercedes ACTROS 1845 LS Hatay 6.5.2026 16:30 1.001.000 TL
591 2023 Motorsiklet PESARO 125 X Samsun 6.5.2026 16:30 1.000 TL
592 2016 Ford TOURNEO COURIER KOMBI 1.6 TDCI Bursa 6.5.2026 16:30 365.000 TL
593 2022 Audi E-TRON GT Mersin 6.5.2026 16:30 751.000 TL
594 2018 Honda CIVIC 1.6İ VTEC Sakarya 6.5.2026 16:30 101.500 TL
595 2025 Kia SPORTAGE 1.6 Hatay 6.5.2026 16:30 5.500 TL
596 2022 Ford TRANSIT COURIER 1.5 TDCI Muğla 6.5.2026 16:30 1.000 TL
597 1995 Ford ESCORT 1.6 SW Rize 6.5.2026 16:30 1.000 TL
598 2011 Mercedes AXOR 1840 LS Mersin 6.5.2026 16:30 51.500 TL
599 2007 Peugeot BOXER VAN Mardin 6.5.2026 16:30 1.000 TL
600 2023 Mercedes SPRINTER 2,0 18+1 Ankara 6.5.2026 16:30 250.000 TL
601 2017 Renault KADJAR 1.5 DCI Ankara 6.5.2026 16:30 1.000 TL
602 2005 Fiat/Tofaş PALIO 1.2 Bursa 6.5.2026 16:30 1.000 TL
603 2024 Motorsiklet 125 R Mersin 6.5.2026 16:30 500 TL
604 2012 Mini COUNTRYMAN 1.6 Kocaeli 6.5.2026 16:30 200.000 TL
605 2012 Toyota YARIS 1.33 STYLE MULTIDRIVE S Balıkesir 6.5.2026 16:30 240.000 TL
606 2016 Volkswagen POLO 1.4 TDI Mersin 6.5.2026 16:30 314.500 TL
607 2005 Motorsiklet ZX 6R Karaman 6.5.2026 16:30 1.000 TL
608 2020 Honda CIVIC 1.6İ VTEC Ankara 6.5.2026 16:30 100.000 TL
609 2008 Hyundai ACCENT ERA 1.4 TEAM Gaziantep 6.5.2026 16:30 1.000 TL
610 2010 Hyundai i30 CW 1.6 CRDi MODE İstanbul 6.5.2026 16:30 1.000 TL
611 2009 Fiat/Tofaş FIORINO 1.3 MULTIJET Kayseri 6.5.2026 16:30 500 TL
612 2024 Motorsiklet MP3 530 HPE Eskişehir 6.5.2026 16:30 5.000 TL
613 2016 Mercedes SPRINTER MİNÜBÜS 16+1 Bursa 6.5.2026 16:30 50.000 TL
614 2024 Hyundai İ20 1.4 MPI Ankara 6.5.2026 16:30 111.000 TL
615 2023 Motorsiklet 1290 SUPER ADVETURE S İstanbul 6.5.2026 16:30 35.000 TL
616 1991 Renault R9 SPRİNG 1.4 Mersin 6.5.2026 16:30 1.000 TL
617 2012 Renault MEGANE 1,5 DCI PRİVLAGE İstanbul 6.5.2026 16:30 100.000 TL
618 2025 Motorsiklet HONDA SH 150 Afyonkarahisar 6.5.2026 16:30 1.000 TL
619 2016 Motorsiklet HONDA SPACY 110 İzmir 6.5.2026 16:30 1.000 TL
620 2011 Honda CIVIC SEDAN 1.6 DREAM (Y) Elazığ 6.5.2026 16:30 1.000 TL
621 1997 Opel COMBO 1.4 KAMYONET Ankara 6.5.2026 16:30 1.000 TL
622 2004 Skoda FABIA 1.4i COMBI ELEGANCE 101 Muğla 6.5.2026 16:30 1.000 TL
623 2024 Motorsiklet SKYJET BELLINA 125 Rize 6.5.2026 16:30 1.000 TL
624 2023 Renault MEGANE SEDAN ICON 1.3 TCE EDC 140 FAZ2 İstanbul 6.5.2026 16:30 550.000 TL
625 1999 Fiat/Tofaş SIENA 1.4 EL Kastamonu 6.5.2026 16:30 45.000 TL
626 2025 Motorsiklet MONDIAL STRADA 125 Samsun 6.5.2026 16:30 1.000 TL
627 2021 Motorsiklet HONDA NT 1100 İstanbul 6.5.2026 16:30 95.000 TL
628 2022 Motorsiklet HONDA MONKEY 125 (JB03) İstanbul 6.5.2026 16:30 25.000 TL
629 2011 Mercedes AXOR 3340 K/36 6x4 Adana 6.5.2026 16:30 1.000 TL
630 2022 Dorse/Römork FRIGOFRIK TIP SO¦U. Kayseri 6.5.2026 16:30 1.000 TL
631 2024 Motorsiklet MOTOLUX CEO 125 Eskişehir 6.5.2026 16:30 1.000 TL
632 1994 Fiat/Tofaş SAHIN S Aydın 6.5.2026 16:30 1.000 TL
633 2008 Toyota COROLLA HB 1.4 D-4D PLUS LINE Aydın 6.5.2026 16:30 1.000 TL
634 2021 Motorsiklet MONDIAL 50 TT Muğla 6.5.2026 16:30 1.000 TL
635 2024 Motorsiklet KUBA NEWLIGHT 125 PRO İstanbul 6.5.2026 16:30 1.000 TL
636 2017 Audi A4 1.4 TFSI 150 DESIGN S TRONIC İstanbul 6.5.2026 16:30 605.000 TL
637 2016 Dacia LODGY LAUREATE 1.5 DCI 110 5 KISILIK Muğla 6.5.2026 16:30 35.000 TL
638 2007 Volkswagen T.PORTER C.LIVAN 2.5 TDI LWB (130) 1+1 Bursa 6.5.2026 16:30 1.000 TL
639 2009 Peugeot 207 TRENDY MP3 1.4 HDI 5K İstanbul 6.5.2026 16:30 500 TL
640 2023 Motorsiklet ARORA CG100 Amasya 6.5.2026 16:30 1.000 TL
641 2025 Renault MEGANE SEDAN ICON 1.5 BLUEDCI EDC 115 FAZ2 Kocaeli 6.5.2026 16:30 265.500 TL
642 2025 Citroen E-C3 MAX 83KW İstanbul 6.5.2026 16:30 356.000 TL
643 2009 Volkswagen JETTA 1.6 PRIMELINE (102) Ankara 6.5.2026 16:30 150.500 TL
644 2001 Opel ASTRA 1.6i 16V SEDAN ELEGANCE İstanbul 6.5.2026 16:30 150.000 TL
645 2003 Renault MEGANE II HB AUTHENTIQUE 1.5 DCI Rize 6.5.2026 16:30 1.500 TL
646 2007 Citroen C4 1.6 HDI SX Eskişehir 6.5.2026 16:30 2.000 TL
647 2003 Opel VECTRA 1.6 SEDAN ELEGANCE Antalya 6.5.2026 16:30 500 TL
648 2013 Renault FLUENCE JOY 1.5 DCI 110 EDC İzmir 6.5.2026 16:30 500 TL
649 2023 Motorsiklet KUBA VN50 PRO Muğla 6.5.2026 16:30 500 TL
650 2011 Toyota COROLLA SEDAN 1.6 ELEGANT OV İstanbul 6.5.2026 16:30 1.500 TL
651 2023 Motorsiklet ARORA DAZZLE 50 Kocaeli 6.5.2026 16:30 500 TL
652 2025 Opel FRONTERA-E 83 KW İstanbul 6.5.2026 16:30 2.000 TL
653 2020 Kia PICANTO COOL 1.0 (67) OV İstanbul 6.5.2026 16:30 1.000 TL
654 2021 Bmw 320İ SEDAN 1.6 170 EXECUTIVE M SPORT İstanbul 6.5.2026 16:30 5.000 TL
655 2025 Fiat/Tofaş EGEA SEDAN EASY 1.4 FIRE 95 GSR Van 6.5.2026 16:30 500 TL
656 2023 Motorsiklet APEC PS5 125 İstanbul 6.5.2026 16:30 500 TL
657 2014 Dacia DUSTER AMBIANCE 1.5 DCI 110 4X4 Şırnak 6.5.2026 16:30 500 TL
658 1998 Honda CIVIC 1.6 IES Çorum 6.5.2026 16:30 500 TL
659 2013 Motorsiklet SUZUKI BURGMAN 200 İstanbul 6.5.2026 16:30 500 TL
660 2010 Fiat/Tofaş ALBEA SOLE 1.3 MULTIJET PREMIO Tekirdağ 6.5.2026 16:30 500 TL
661 2021 Motorsiklet DUCATI MULTISTRADA V4 S İstanbul 6.5.2026 16:30 500 TL
662 2023 Chery TIGGO 7 PRO EXCELLENT İstanbul 6.5.2026 16:30 500 TL
663 2013 Motorsiklet ARORA AR 150 Malatya 6.5.2026 16:30 500 TL
664 2022 Motorsiklet RKS SNIPER Edirne 6.5.2026 16:30 500 TL
665 2006 Kia RIO 1.5 CRDI SEDAN COMFORT İstanbul 6.5.2026 16:30 90.000 TL
666 2001 Hyundai ACCENT 1.3 LX (Y) Edirne 6.5.2026 16:30 500 TL
667 2024 Motorsiklet KANUNI MATI 125 Kütahya 6.5.2026 16:30 500 TL
668 2007 Renault MEGANE II HB AUTHENTIQUE 1.5 DCI İstanbul 6.5.2026 16:30 1.000 TL
669 2014 Volkswagen CADDY COMBI 1.6 TDI TEAM İstanbul 6.5.2026 16:30 500 TL
670 2012 Volkswagen CADDY KOMBI 1.6 TDI Antalya 6.5.2026 16:30 5.500 TL
671 2001 Opel ASTRA 1.6 Samsun 6.5.2026 16:30 1.500 TL
672 2010 Peugeot BIPPER KOMBI 1.4 HDI Çankırı 6.5.2026 16:30 1.000 TL
673 2000 Fiat/Tofaş BRAVO 1.6 SX Antalya 6.5.2026 16:30 1.000 TL
674 2010 Chevrolet CRUZE 1.6 İstanbul 6.5.2026 16:30 1.000 TL
675 2012 Audi A3 SPORTBACK 1.6 TDI Isparta 6.5.2026 16:30 4.500 TL
676 2024 Honda PCX 125 İstanbul 6.5.2026 16:30 2.000 TL
677 2024 Honda DIO Düzce 6.5.2026 16:30 1.000 TL
678 2014 Bmw i3 Ankara 6.5.2026 16:30 3.800 TL
679 2024 Motorsiklet SRK 125 R İstanbul 6.5.2026 16:30 1.000 TL
680 2004 Hyundai H 100 Bursa 6.5.2026 16:30 1.000 TL
681 2025 Motorsiklet XMAX 300 TECH MAX İstanbul 6.5.2026 16:30 23.000 TL
682 2008 Hyundai STAREX KAMYONET 2.5 Şehir Seç 6.5.2026 16:30 500 TL
683 2010 Dacia LOGAN MCV 1.5 DCI Sakarya 6.5.2026 16:30 1.000 TL
684 2023 Motorsiklet R250 Antalya 6.5.2026 16:30 2.000 TL
685 2024 Renault MEGANE SEDAN 1.3 TCE Ankara 7.5.2026 15:15 210.000 TL
686 2025 Nissan QASHQAI 1.3 DIG-T İstanbul 7.5.2026 15:15 210.000 TL
687 2025 Chery TIGGO 7 PRO MAX 1.6 T-GDI Adana 7.5.2026 15:15 90.000 TL
688 2019 Audi A3 SPORTBACK 30 TDI DESIGN Samsun 7.5.2026 15:15 653.000 TL
689 2010 Toyota COROLLA SEDAN 1.4D-4D Samsun 7.5.2026 15:15 155.500 TL
690 2021 Renault TALIANT JOY 1.0 SCE 65 İzmir 7.5.2026 15:15 500 TL
691 2012 Mercedes SPRINTER 415 CDI Kocaeli 7.5.2026 15:15 150.000 TL
692 2025 Mercedes GLC 180 COUPE Ankara 7.5.2026 15:15 3.950.000 TL
693 2020 Peugeot 5008 1.5 BLUEHDI Mersin 7.5.2026 15:15 210.000 TL
694 2025 Chery TIGGO 7 1.6 T-GDI Ankara 7.5.2026 15:15 238.000 TL
695 2013 Ford FOCUS 1.6 TDCI Ankara 7.5.2026 15:15 150.000 TL
696 2023 Renault EXPRESS COMBI JOY 1.5 BLUEDCI Mardin 7.5.2026 15:15 150.000 TL
697 2021 Toyota COROLLA 1.5 SEDAN Konya 7.5.2026 15:15 210.000 TL
698 2025 Hyundai BAYON 1.0 T-GDI Tekirdağ 7.5.2026 15:15 100.200 TL
699 2024 Chery OMODA 5 1.6 T-GDI Uşak 7.5.2026 15:15 501.000 TL
700 2025 Jaecoo JAECOO 7 1.6 İstanbul 7.5.2026 15:15 1.000 TL
701 2016 Volkswagen PASSAT 1.6 TDI BMT Ankara 7.5.2026 15:15 1.000 TL
702 2024 Honda JAZZ 1.5 E-HEV İstanbul 7.5.2026 15:15 100.200 TL
703 2023 Suzuki VITARA 1.4 HYBRID Ankara 7.5.2026 15:15 100.200 TL
704 2025 Byd DOLPHIN 150KW Tekirdağ 7.5.2026 15:15 100.200 TL
705 2016 Volkswagen POLO 1.0 TRENDLINE Çanakkale 7.5.2026 15:15 10.000 TL
706 2025 Citroen E-C4 X MAX Ankara 7.5.2026 15:15 100.200 TL
707 2024 Toyota PROACE CITY CARGO 1.5 D Balıkesir 7.5.2026 15:15 1.000 TL
708 2019 Volkswagen CADDY 2.0 TDI İstanbul 7.5.2026 15:15 1.000 TL
709 2023 Iveco CEKICI S-WAY Artvin 7.5.2026 15:15 50.000 TL
710 2011 Renault CEKICI PREMIUM 430.19 T 4X2 Konya 7.5.2026 15:15 281.000 TL
711 2017 Renault MEGANE SEDAN 1.5 DCI Hatay 7.5.2026 15:15 1.000 TL
712 2014 Suzuki GW 250 INAZUMA İstanbul 7.5.2026 15:30 1.000 TL
713 2004 Ford FIESTA 1.4 Isparta 7.5.2026 15:30 1.000 TL
714 1999 Fiat/Tofaş PALIO 1.4 Giresun 7.5.2026 15:30 1.000 TL
715 2006 Mercedes C 200 K Düzce 7.5.2026 15:30 1.000 TL
716 2023 Motorsiklet CFMOTO ZFORCE 1000 SPORT R İzmir 7.5.2026 15:30 1.000 TL
717 2006 Fiat/Tofaş DOBLO CARGO 1.3 MULTIJET Kırklareli 7.5.2026 15:30 1.000 TL
718 2022 Motorsiklet MONDIAL 125 DRIFT L Eskişehir 7.5.2026 15:30 1.000 TL
719 2012 Fiat/Tofaş FIORINO 1.4 İzmir 7.5.2026 15:30 1.000 TL
720 2023 Motorsiklet MTX 125 Sakarya 7.5.2026 15:30 1.000 TL
721 2021 Citroen C3 1.2 PURETECH İzmir 7.5.2026 15:30 1.000 TL
722 2024 Renault CLIO 1.0 TCE Antalya 7.5.2026 15:30 1.000 TL
723 2021 Fiat/Tofaş EGEA CROSS 1.4 FIRE İzmir 7.5.2026 15:30 1.000 TL
724 2020 Ford TOURNEO CONNECT KOMBI 1.5 ECOBLUE İstanbul 7.5.2026 15:30 1.000 TL
725 2007 Ford FIESTA VAN 1.4 TDCİ Kayseri 7.5.2026 15:30 1.000 TL
726 2008 Seat LEON 1.6 İzmir 7.5.2026 15:30 1.000 TL
727 2012 Peugeot 208 1.4 HDI Samsun 7.5.2026 15:30 1.000 TL
728 2001 Mitsubishi CARISMA 1.6 COMFORT SEDAN Şehir Seç 7.5.2026 15:30 1.000 TL
729 2015 Peugeot PARTNER TEPEE 1.6 HDI Ordu 7.5.2026 15:30 1.000 TL
730 2021 Volkswagen POLO 1.0 TSI Ankara 7.5.2026 15:30 1.000 TL
731 2014 Toyota COROLLA 1.4 D-4D ADVANCE M/M Eskişehir 7.5.2026 15:30 1.000 TL
732 2016 Peugeot 2008 1.6 E-HDI Ankara 7.5.2026 15:30 1.000 TL
733 2017 Ford FOCUS SEDAN 1.5 TDCI Kocaeli 7.5.2026 15:30 1.000 TL
734 2026 Dorse/Römork YASİN ATEŞ SEMİ TRAİLER YARI RÖMORK Konya 7.5.2026 15:30 1.000 TL
735 2025 Porsche MACAN 4 İstanbul 7.5.2026 15:30 1.000 TL
736 2014 Fiat/Tofaş DOBLO CARGO 1.3 M.JET Şehir Seç 7.5.2026 15:30 1.000 TL
737 2025 Ford FOCUS 1.5 ECOBLUE 115 İstanbul 7.5.2026 15:30 1.000 TL
738 2014 Volkswagen POLO 1.2 TSI İstanbul 7.5.2026 15:30 1.000 TL
739 2015 Mercedes KAMYON AXOR 4140 Trabzon 7.5.2026 15:30 1.000 TL
740 2015 Bmw S 1000 RR İstanbul 7.5.2026 15:30 1.000 TL
741 2015 Mercedes KAMYON AXOR 4140 Trabzon 7.5.2026 15:30 1.000 TL
742 2020 Renault CLIO 1.0 TCE X-TRONIC Osmaniye 7.5.2026 15:30 1.000 TL
743 2012 Toyota COROLLA SEDAN 1.4 4 4D Ankara 7.5.2026 15:30 1.000 TL
744 2014 Renault CLIO HB 1.5 DCI Ankara 7.5.2026 15:30 1.000 TL
745 2018 Skoda SUPERB 1.6 TDI CR Samsun 7.5.2026 15:30 1.000 TL
746 2015 Opel CORSA 1.4 Kayseri 7.5.2026 15:30 1.000 TL
747 2010 Toyota AVENSIS 2.0 D Samsun 7.5.2026 15:30 1.000 TL
748 1999 Toyota COROLLA 1.3 TERRA İstanbul 7.5.2026 15:30 1.000 TL
749 2011 Renault KANGOO 1.5 dCi Kocaeli 7.5.2026 15:30 1.000 TL
750 1992 Renault BROADWAY Sinop 7.5.2026 15:30 1.000 TL
751 2020 Renault CLIO HB TOUCH 0.9 TCE Erzurum 7.5.2026 15:30 1.000 TL
752 2016 Volkswagen TIGUAN 1.4 TSI Gaziantep 7.5.2026 15:30 1.000 TL
753 2020 Bmw 320i Antalya 7.5.2026 15:30 1.000 TL
754 2014 Volkswagen POLO 1.4 TDI Sivas 7.5.2026 15:30 1.000 TL
755 2024 Volvo S60 B5 PLUS DARK İzmir 7.5.2026 15:30 1.000 TL
756 2012 Ford FIESTA TITANIUM 5K 1.4i Malatya 7.5.2026 15:30 1.000 TL
757 2012 Ford TRANSIT 350 L VAN Ankara 7.5.2026 15:30 1.000 TL
758 2024 Fiat/Tofaş DUCATO 16+1 İstanbul 7.5.2026 15:30 1.000 TL
759 2014 Ford TRANSIT COURIER VAN 1.6 TDCI Malatya 7.5.2026 15:30 1.000 TL
760 2015 Mercedes SPRINTER 316 CDI MINIBUS 16+1 İstanbul 7.5.2026 15:30 1.000 TL
761 2020 Tumosan 6065 4WD Hatay 7.5.2026 15:30 1.000 TL
762 2007 Audi A6 2.0 T FSI MULTIRONIC Kocaeli 7.5.2026 15:30 1.000 TL
763 2017 Renault MEGANE SEDAN 1.5 DCI İzmir 7.5.2026 15:30 1.000 TL
764 2007 Ford T. CONNECT KOMBI K210S 1.8 TDDi Bitlis 7.5.2026 15:30 1.000 TL
765 2024 Motorsiklet RKS NEW LIGHT PRO (GST125T-16) Bursa 7.5.2026 15:30 1.000 TL
766 2004 Ford T.CONNECT VAN 1.8 TDCi Manisa 7.5.2026 15:30 1.000 TL
767 2023 Motorsiklet KUBA PESARO 125 X Amasya 7.5.2026 15:30 1.000 TL
768 2022 Motorsiklet SFC MINI 50 Adana 7.5.2026 15:30 1.000 TL
769 1990 Fiat/Tofaş DOĞAN 1.6 Denizli 7.5.2026 15:30 1.000 TL
770 2015 Renault CLIO SPORT TOURER JOY 1.5 DCI 75 İzmir 7.5.2026 15:30 1.000 TL
771 2011 Chevrolet CAPTIVA 2.0 Konya 7.5.2026 15:30 1.000 TL
772 2025 Motorsiklet FURY 110i Kayseri 7.5.2026 15:30 1.000 TL
773 2024 Dacia SANDERO 1,0 Diyarbakır 7.5.2026 15:30 1.000 TL
774 2023 Honda PCX 125 İstanbul 7.5.2026 15:30 1.000 TL
775 2016 Fiat/Tofaş DAILY 70C15 Bursa 7.5.2026 15:30 1.000 TL
776 2005 Land Rover FREELANDER 2.0 Td4 İstanbul 7.5.2026 15:30 1.000 TL
777 2015 Renault KADJAR 1.5 DCI Ankara 7.5.2026 15:30 1.000 TL
778 2018 Volkswagen TOUAREG 3.0 TDI Sakarya 7.5.2026 15:30 1.000 TL
779 2021 Renault CLIO HB 1.0 Zonguldak 7.5.2026 15:30 1.000 TL
780 2011 Renault SYMBOL 1.5 DCI Antalya 7.5.2026 15:30 1.000 TL
781 2012 Opel MOKKA 1.6 Antalya 7.5.2026 15:30 1.000 TL
782 2005 Ford FOCUS 1.6i TREND Isparta 7.5.2026 15:30 1.000 TL
783 2023 Honda CIVIC SEDAN 1.5 Ankara 7.5.2026 15:30 1.000 TL
784 2015 Skoda OCTAVIA 1.6 TDI İstanbul 7.5.2026 15:30 1.000 TL
785 2015 Peugeot 308 HB 1.2 PURETECH İstanbul 7.5.2026 15:30 1.000 TL
786 2025 Chery TIGGO 7 PRO MAX Ankara 7.5.2026 15:30 1.000 TL
787 2011 Renault FLUENCE EXTREME 1.5 DCI Şehir Seç 7.5.2026 15:30 1.000 TL
788 2023 Citroen C4 X 1.2 PURETCH Gaziantep 7.5.2026 15:30 1.000 TL
789 2023 Honda PCX 125 Mersin 7.5.2026 15:30 1.000 TL
790 2011 Fiat/Tofaş FIORINO COMBI 1.3 M.JET EMOTION Ankara 7.5.2026 15:30 1.000 TL
791 2009 Toyota COROLLA 1,6 Samsun 7.5.2026 15:30 1.000 TL
792 2018 Ford FOCUS III MCA TITANIUM 1.5 TDCI Şanlıurfa 7.5.2026 15:30 1.000 TL
793 2016 Audi A6 2.0 TDI Konya 7.5.2026 15:30 1.000 TL
794 2014 Fiat/Tofaş DOBLO COMBI 1.6 M.JET Adana 7.5.2026 15:30 1.000 TL
795 1991 Renault L 422 Osmaniye 7.5.2026 15:30 1.000 TL
796 2017 Volkswagen PASSAT 1.6 TDI BMT Osmaniye 7.5.2026 15:30 1.000 TL
797 2002 Fiat/Tofaş DOGAN 1.6 İ.E. Samsun 7.5.2026 15:30 1.000 TL
798 2019 Skoda OCTAVIA 1.6 TDI Samsun 7.5.2026 15:30 1.000 TL
799 2016 Audi A4 2.0 TDI 190 S TRONIC Aydın 7.5.2026 15:30 1.000 TL
800 2020 Renault MEGANE 1.3 TCE Samsun 7.5.2026 15:30 1.000 TL
801 2011 Land Rover RANGE ROVER 3.6 TDV 8 İstanbul 7.5.2026 15:30 1.000 TL
802 2007 Peugeot PARTNER 2.0 HDI Antalya 7.5.2026 15:30 1.000 TL
803 1999 Fiat/Tofaş MAREA 1.6 SX Konya 7.5.2026 15:30 1.000 TL
804 2012 Opel ASTRA NB 1.6i (115) Diyarbakır 7.5.2026 15:30 1.000 TL
805 2023 Motorsiklet R250 İzmir 7.5.2026 15:30 1.000 TL
806 2023 Renault CLIO 1.0 TCE X-TRONIC İstanbul 7.5.2026 15:30 1.000 TL
807 2022 Audi A7 SPORTBACK 2.0 Osmaniye 7.5.2026 15:30 1.000 TL
808 2011 Renault MEGANE 1,5 DCI PRİVLAGE İstanbul 7.5.2026 15:30 1.000 TL
809 2012 Ford FIESTA 1.4 TDCi TREND Trabzon 7.5.2026 15:30 1.000 TL
810 2020 Renault TRAFIC PANELVAN GRANDCONFORT Kütahya 7.5.2026 15:30 1.000 TL
811 2020 Dorse/Römork SERT TREYLER DAMPERLİ Batman 7.5.2026 15:30 1.000 TL
812 2011 Audi A3 SPORTBACK 1.4 TFSI Batman 7.5.2026 15:30 1.000 TL
813 2008 Ford FIESTA 1.4 TDCİ COMFORT Afyonkarahisar 7.5.2026 15:30 1.000 TL
814 2012 Güleryüz COBRA OTOBUS Mersin 7.5.2026 15:30 1.000 TL
815 2016 Opel ASTRA NB 1.6 DIZEL Ankara 7.5.2026 15:30 1.000 TL
816 2008 Peugeot 206 SEDAN 1.4 COMFORT Ankara 7.5.2026 15:30 1.000 TL
817 2023 Renault MEGANE TOUCH 1.3 TCE Bursa 7.5.2026 15:30 1.000 TL
818 2025 Peugeot RIFTER ALLURE 1.5 BLUEHDI 130 Adana 7.5.2026 15:30 1.000 TL
819 2008 Fiat/Tofaş DOBLO COMBI 1.3 M.JET ACTİVE Balıkesir 7.5.2026 15:30 1.000 TL
820 2018 Motorsiklet MTN 250-A Ankara 7.5.2026 15:30 1.000 TL
821 2021 Peugeot 308 1,5 BLUEHDI İstanbul 7.5.2026 15:30 1.000 TL
822 1999 Mazda 323 1.5 SEDAN Balıkesir 7.5.2026 15:30 1.000 TL
823 2020 Dacia DUSTER 1.5 BLUE DCI Bursa 7.5.2026 15:30 1.000 TL
824 2010 Opel ASTRA HB CLASSIC 1.3 CDTi Şehir Seç 7.5.2026 15:30 1.000 TL
825 2010 Fiat/Tofaş LINEA 1.3 MULTIJET ACTIVE İstanbul 7.5.2026 15:30 1.000 TL
826 2017 Nissan QASHQAI 1.6 DCI Mersin 7.5.2026 15:30 1.000 TL
827 2025 Motorsiklet CASPER PRO 50 Uşak 7.5.2026 15:30 1.000 TL
828 2023 Togg T10X İstanbul 7.5.2026 15:30 1.000 TL
829 2016 Renault FLUENCE 1.5 DCİ Çanakkale 7.5.2026 15:30 1.000 TL
830 2006 Ford TRANSIT CONNECT T220 S Konya 7.5.2026 15:30 1.000 TL
831 2023 Motorsiklet SFC MINI 50 EC Sinop 7.5.2026 15:30 1.000 TL
832 2023 Honda DIO Ankara 7.5.2026 15:30 1.000 TL
833 2023 Renault CLIO 1,0 Aydın 7.5.2026 15:30 1.000 TL
834 2005 Tata INDICA 1.4 TDI Antalya 7.5.2026 15:30 1.000 TL
835 2013 Fiat/Tofaş LINEA 1.3 M.JET Mersin 7.5.2026 15:30 1.000 TL
836 2023 Renault TRAFIC PANELVAN GRAND CONFORT 2.0 DCİ Düzce 7.5.2026 15:30 1.000 TL
837 2023 Peugeot 3008 1.5 BLUEHDI Hatay 7.5.2026 15:30 1.000 TL
838 2025 Peugeot EXPERT VAN STANDART 1.5 BLUEHDI Ankara 7.5.2026 15:30 1.000 TL
839 2015 Nissan MICRA 1.2 MATCH Kırşehir 7.5.2026 15:30 1.000 TL
840 2016 Motorsiklet MT 25 Çankırı 7.5.2026 15:30 1.000 TL
841 2020 Benellı 125 S Ankara 7.5.2026 15:30 1.000 TL
842 2011 Isuzu D MAX CIFT KABIN K.NET 4x2 Manisa 7.5.2026 15:30 1.000 TL
843 2024 Motorsiklet MAX T EASY 125 Ankara 7.5.2026 15:30 1.000 TL
844 2024 Mini COUNTRYMAN E FAVOURED İstanbul 7.5.2026 15:30 1.000 TL
845 2023 Motorsiklet AROME 125 Kocaeli 7.5.2026 15:30 1.000 TL
846 2013 Toyota COROLLA 1.4 D-4D Artvin 7.5.2026 15:30 1.000 TL
847 1997 Mazda 323 SEDAN 1.6 Bilecik 7.5.2026 15:30 1.000 TL
848 2005 Fiat/Tofaş DOBLO 1.3 MULTIJET Samsun 7.5.2026 15:30 1.000 TL
849 1996 Fiat/Tofaş KARTAL SLX Muğla 7.5.2026 15:30 1.000 TL
850 2021 Hyundai H100 KAMYONET 2.5 CRDI Muğla 7.5.2026 15:30 1.000 TL
851 2013 Volkswagen GOLF 1.2 TSI Adana 7.5.2026 15:30 1.000 TL
852 2021 Fiat/Tofaş DOBLO CARGO MAXI 1.6 M.JET 120 Bursa 7.5.2026 15:30 1.000 TL
853 2024 Renault MEGANE 1,3 TCE Ankara 7.5.2026 15:30 1.000 TL
854 2023 Fiat/Tofaş EGEA 1,4 FİRE Adıyaman 7.5.2026 15:30 1.000 TL
855 2013 Opel ASTRA HB CLASSIC 1.6i Erzurum 7.5.2026 15:30 1.000 TL
856 2005 Ford FIESTA 1.4 TDCi COMFORT Sakarya 7.5.2026 15:30 1.000 TL
857 1996 Fiat/Tofaş SAHIN S Şehir Seç 7.5.2026 15:30 1.000 TL
858 2024 Renault TALIANT JOY 1.0 TURBO X-TRONIC 90 İstanbul 7.5.2026 15:30 1.000 TL
859 2017 Opel ASTRA HB 1.4 150 Şehir Seç 7.5.2026 15:30 1.000 TL
860 2016 Seat LEON 1.6 TDI 110 DSG Şehir Seç 7.5.2026 15:30 1.000 TL
861 2023 Motorsiklet CG50 Balıkesir 7.5.2026 15:30 1.000 TL
862 2025 Motorsiklet PULSAR RS200 Manisa 7.5.2026 15:30 1.000 TL
863 2024 Citroen C3 AIRCROSS SHINE 1.2 PURETECH Tekirdağ 7.5.2026 15:30 1.000 TL
864 2015 Volkswagen TIGUAN 2.0 TDI Muğla 7.5.2026 15:30 1.000 TL
865 2018 Honda CIVIC 1.6 Ankara 7.5.2026 15:30 1.000 TL
866 2019 Renault CLIO HB 1.2 TURBO Ankara 7.5.2026 15:30 1.000 TL
867 2020 Jeep COMPASS 1.3 İstanbul 7.5.2026 15:30 1.000 TL
868 2017 Fiat/Tofaş LINEA POP 1.3 MULTIJET Çanakkale 7.5.2026 15:30 1.000 TL
869 2023 Fiat/Tofaş EGEA CROSS 1.4 FIRE Zonguldak 7.5.2026 15:30 1.000 TL
870 2020 Fiat/Tofaş FIORINO COMBI 1.3 M.JET Mersin 7.5.2026 15:30 1.000 TL
871 2023 Hyundai BAYON 1.0T İzmir 7.5.2026 15:30 1.000 TL
872 2022 Dacia DUSTER 1.3 TURBO Kocaeli 7.5.2026 15:30 1.000 TL
873 2021 Honda CITY 4D 1.5 Sivas 7.5.2026 15:30 1.000 TL
874 2016 Volkswagen TIGUAN 2.0 TDI Şehir Seç 7.5.2026 15:30 1.000 TL
875 2015 Seat IBIZA 1.2 TSI Kocaeli 7.5.2026 15:30 1.000 TL
876 2017 Renault SYMBOL JOY 1.5 DCI Konya 7.5.2026 15:30 1.000 TL
877 2001 Ford FOCUS 1.6i Ankara 7.5.2026 15:30 1.000 TL
878 2020 Motorsiklet STMAX LINDY 50 Antalya 7.5.2026 15:30 1.000 TL
879 2025 Motorsiklet WİNG 50İ Ankara 7.5.2026 15:30 1.000 TL
880 2018 Peugeot 3008 1.6 BLUEHDI Erzurum 7.5.2026 15:30 1.000 TL
881 2023 Motorsiklet CG 50 Mersin 7.5.2026 15:30 1.000 TL
882 2022 Honda DIO Mersin 7.5.2026 15:30 1.000 TL
883 2016 Fiat/Tofaş EGEA 1.3 MULTIJET Kocaeli 7.5.2026 15:30 1.000 TL
884 2018 Volkswagen PASSAT 1.6 TDI İstanbul 7.5.2026 15:30 1.000 TL
885 2022 Hyundai BAYON 1.4 MPI İzmir 7.5.2026 15:30 1.000 TL
886 2023 Ford TOURNEO COURIER 1.5 İstanbul 7.5.2026 15:30 1.000 TL
887 2013 Citroen C4 1.6 e-HDI İstanbul 7.5.2026 15:30 1.000 TL
888 2023 Volkswagen TAIGO 1.0 TSI Balıkesir 7.5.2026 15:30 1.000 TL
889 2020 Hyundai TUCSON FL 1.6 T-GDI Kütahya 7.5.2026 15:30 1.000 TL
890 2015 Bmw 116d 1.5 Bursa 7.5.2026 15:30 1.000 TL
891 2023 Motorsiklet CITA50 R GOLD Şehir Seç 7.5.2026 15:30 1.000 TL
892 2015 Peugeot 208 1.2 PURETECH İzmir 7.5.2026 15:30 1.000 TL
893 2011 Honda CBR 250R Sakarya 7.5.2026 15:30 1.000 TL
894 2019 Volkswagen PASSAT 1.6 TDI Konya 7.5.2026 15:30 1.000 TL
895 2011 Volkswagen PASSAT 1.6 TDI BMT COMFORTLINE Mersin 7.5.2026 15:30 1.000 TL
896 2025 Motorsiklet VSX ELEKTRIKLI Malatya 7.5.2026 15:30 1.000 TL
897 2010 Fiat/Tofaş DOBLO COMBI 1.3 MULTIJET SAFELINE Nevşehir 7.5.2026 15:30 1.000 TL
898 2023 Motorsiklet MARTINI 50 Kahramanmaraş 7.5.2026 15:30 1.000 TL
899 2006 Renault MEGANE 1.4 Adıyaman 7.5.2026 15:30 1.000 TL
900 1991 Fiat/Tofaş SAHİN 1.6 İzmir 7.5.2026 15:30 1.000 TL
901 2020 Fiat/Tofaş EGEA SEDAN 1.3 M.JET 95 Şehir Seç 7.5.2026 15:30 1.000 TL
902 2023 Fiat/Tofaş DOBLO CARGO MAXI 1.6 M.JET Konya 7.5.2026 15:30 1.000 TL
903 2009 Fiat/Tofaş ALBEA SOLE 1.3 MULTIJET İstanbul 7.5.2026 15:30 1.000 TL
904 2019 Renault CLIO HB 1.5 DCI Bursa 7.5.2026 15:30 1.000 TL
905 2017 Hyundai ACCENT BLUE 1.4 D-CVVT Sivas 7.5.2026 15:30 1.000 TL
906 2023 Motorsiklet RESA 125 SCOOTER Bursa 7.5.2026 15:30 1.000 TL
907 2008 Ford FUSION 1.6 TDCi Manisa 7.5.2026 15:30 1.000 TL
908 1998 Nissan MICRA 1.3 GX (ESKI MODEL) Ankara 7.5.2026 15:30 1.000 TL
909 2001 Renault MEGANE 1.4 HB Antalya 7.5.2026 15:30 1.000 TL
910 2015 Dacia DOKKER 1.5 DCI Bitlis 7.5.2026 15:30 1.000 TL
911 2010 Dorse/Römork DAMPERLİ YARI RÖMORK Ankara 7.5.2026 15:30 1.000 TL
912 2007 Peugeot 206 FEVER 1.4 Şehir Seç 7.5.2026 15:30 1.000 TL
913 2024 Motorsiklet K-LIGHT 250V Aksaray 7.5.2026 15:30 1.000 TL
914 2023 Motorsiklet JUPITER 125 Şehir Seç 7.5.2026 15:30 1.000 TL
915 2020 Motorsiklet 125 DRIFT L Şehir Seç 7.5.2026 15:30 1.000 TL
916 2014 Toyota COROLLA 1.4D-4D SEDAN Edirne 7.5.2026 15:30 1.000 TL
917 2011 Citroen C4 1.6 HDI CONFORT İzmir 7.5.2026 15:30 1.000 TL
918 1994 Fiat/Tofaş SAHİN 1.6 Kahramanmaraş 7.5.2026 15:30 1.000 TL
919 2003 Honda CR-V 2.0 Şehir Seç 7.5.2026 15:30 1.000 TL
920 2024 Motorsiklet RAIDER 125 İstanbul 7.5.2026 15:30 1.000 TL
921 2024 Motorsiklet SPECIAL ALFA 125 Ordu 7.5.2026 15:30 1.000 TL
922 2022 Motorsiklet ALTAI CARRIER 110 PRO İstanbul 7.5.2026 15:30 1.000 TL
923 2016 Hyundai ELANTRA 1.6 D-CVVT Van 7.5.2026 15:30 1.000 TL
924 2023 Motorsiklet BRILLIANT 125 PRO Zonguldak 7.5.2026 15:30 1.000 TL
925 2001 Kia PREGIO 3VAN İstanbul 7.5.2026 15:30 1.000 TL
926 2006 Bmw 320D SEDAN İstanbul 7.5.2026 15:30 1.000 TL
927 2023 Motorsiklet DOMİNAR D 250 İstanbul 7.5.2026 15:30 1.000 TL
928 2021 Renault MEGANE SEDAN 1.5 BLUEDCI Batman 7.5.2026 15:30 1.000 TL
929 2022 Ford ECOSPORT 1.0i ECOBOOST Yalova 7.5.2026 15:30 1.000 TL
930 2020 Honda CIVIC 1.6i VTEC Kocaeli 7.5.2026 15:30 1.000 TL
931 2015 Ford FIESTA 1.5 TDCI Batman 7.5.2026 15:30 1.000 TL
932 2016 Motorsiklet MT250 Kocaeli 7.5.2026 15:30 1.000 TL
933 2004 Nissan ALMERA 1.5 SEDAN Samsun 7.5.2026 15:30 1.000 TL
934 2012 Renault FLUENCE 1.6 (110) Malatya 7.5.2026 15:30 1.000 TL
935 2011 Fiat/Tofaş FIORINO PANORAMA 1.3 M.JET 75 Samsun 7.5.2026 15:30 1.000 TL
936 2013 Mercedes SPRINTER 416 CDI OTOBUS 19+1 Gaziantep 7.5.2026 15:30 1.000 TL
937 2023 Ford TOURNEO COURIER KOMBI 1.5 TDCI 100 Adana 7.5.2026 15:30 1.000 TL
938 1998 Volkswagen PASSAT 1.8 BASIC Erzurum 7.5.2026 15:30 1.000 TL
939 2024 Motorsiklet DASH 125 İzmir 7.5.2026 15:30 1.000 TL
940 2012 Audi A4 2.0 TDI Ankara 7.5.2026 15:30 1.000 TL
941 1992 Opel VECTRA 1.8 Ankara 7.5.2026 15:30 1.000 TL
942 2015 Renault FLUENCE SEDAN 1.5 DCI Şanlıurfa 7.5.2026 15:30 1.000 TL
943 1993 Fiat/Tofaş TEMPRA SX Ankara 7.5.2026 15:30 1.000 TL
944 2001 Volkswagen BORA 1.6 Manisa 7.5.2026 15:30 1.000 TL
945 2021 Opel CORSA 1.2 Afyonkarahisar 7.5.2026 15:30 1.000 TL
946 2018 Honda ACTIVA S (NSC125) Antalya 7.5.2026 15:30 1.000 TL
947 2022 Mercedes CLA 200 4MATIC 1.33 163 Hatay 7.5.2026 15:30 1.000 TL
948 2008 Peugeot 308 COMFORT 1.6 VTI (120) Ankara 7.5.2026 15:30 1.000 TL
949 2022 Opel COMBO 1.5 DIZEL 130 Iğdır 7.5.2026 15:30 1.000 TL
950 2016 Motorsiklet LIFAN E-ARCEE ELEKTRİKLİ Düzce 7.5.2026 15:30 1.000 TL
951 2023 Motorsiklet JUPİTER 125 İzmir 7.5.2026 15:30 1.000 TL
952 2020 Honda ACTİVA S 125 Ankara 7.5.2026 15:30 1.000 TL
953 2018 Fiat/Tofaş PRATICO 1.6 M.JET 120 Balıkesir 7.5.2026 15:30 1.000 TL
954 1992 Fiat/Tofaş KARTAL 1.6 Zonguldak 7.5.2026 15:30 1.000 TL
955 2021 Opel CORSA 1.2 100 İstanbul 7.5.2026 15:30 1.000 TL
956 1992 Fiat/Tofaş TEMPRA 1.6 SX-A Çorum 7.5.2026 15:30 1.000 TL
957 2022 Motorsiklet 100 SFC SNAPPY X Kütahya 7.5.2026 15:30 1.000 TL
958 2026 Motorsiklet NEWCITY 50 İzmir 7.5.2026 15:30 1.000 TL
959 2024 Motorsiklet JUPİTER 125 Gaziantep 7.5.2026 15:30 1.000 TL
960 2004 Peugeot 206 1.4 X-LİNA Trabzon 7.5.2026 15:30 1.000 TL
961 2024 Ford FOCUS 1.5 ECOBLUE Şanlıurfa 7.5.2026 15:30 1.000 TL
962 2024 Skoda SUPERB 1.5 TSI MHEV Balıkesir 7.5.2026 15:30 1.000 TL
963 2024 Peugeot 3008 1.2 HYBRID Ankara 7.5.2026 15:30 1.000 TL
964 2017 Renault MEGANE SEDAN 1.5 DCI Şehir Seç 7.5.2026 15:30 1.000 TL
965 1994 Ford ESCORT 1.6 Şehir Seç 7.5.2026 15:30 1.000 TL
966 2007 Honda CITY 1.4 ELITE Aydın 7.5.2026 15:30 1.000 TL
967 2024 Motorsiklet CAPUCCINO 125 İstanbul 7.5.2026 15:30 1.000 TL
968 2024 Motorsiklet CITA 50 R GOLD Şehir Seç 7.5.2026 15:30 1.000 TL
969 1998 Nissan PICK UP 2.7 CIFT KABIN Konya 7.5.2026 15:30 1.000 TL
970 2023 Honda DIO 110. Ankara 7.5.2026 15:30 1.000 TL
971 2024 Motorsiklet CRV 125 İstanbul 7.5.2026 15:30 1.000 TL
972 2007 Ford T. CONNECT KOMBI K210S 1.8 TDCi Şehir Seç 7.5.2026 15:30 1.000 TL
973 2000 Volkswagen BORA 1.6 TRENDLINE Kayseri 7.5.2026 15:30 1.000 TL
974 2010 Opel INSIGNIA NB 1.6 EDITION Kocaeli 7.5.2026 15:30 1.000 TL
975 2026 Hyundai BAYON 1,0 İzmir 7.5.2026 15:30 1.000 TL
976 2004 Peugeot 307 1.4 HDI Gaziantep 7.5.2026 15:30 1.000 TL
977 2023 Motorsiklet WİNG 50 Afyonkarahisar 7.5.2026 15:30 1.000 TL
978 2024 Motorsiklet LCG 125 Düzce 7.5.2026 15:30 1.000 TL
979 2015 Motorsiklet PEOPLE ONE İzmir 7.5.2026 15:30 1.000 TL
980 2013 Ssangyong REXTON 2.0 D Bolu 7.5.2026 15:30 1.000 TL
981 2021 Honda CIVIC SEDAN 1.6i VTEC Denizli 7.5.2026 15:30 1.000 TL
982 2012 Ford TRANSIT CONNECT K210S 1.8 TDCi İzmir 7.5.2026 15:30 1.000 TL
983 2012 Ford RANGER XLT 2.2 TDCI 150 OV Mersin 7.5.2026 15:30 1.000 TL
984 2023 Fiat/Tofaş FIORINO COMBI 1,4 Çanakkale 7.5.2026 15:30 1.000 TL
985 2004 Renault CLIO HB 1.2 İstanbul 7.5.2026 15:30 1.000 TL
986 2017 Dacia LOGAN MCV 1.5 DCI İzmir 7.5.2026 15:30 1.000 TL
987 2023 Motorsiklet FIDDLE 125 İstanbul 7.5.2026 15:30 1.000 TL
988 2013 Skoda SUPERB 1.6 TDI Şehir Seç 7.5.2026 15:30 1.000 TL
989 2009 Volkswagen CADDY KOMBI 1.9 TDI İzmir 7.5.2026 15:30 1.000 TL
990 2017 Kia CEED 1.6 CRDI Şehir Seç 7.5.2026 15:30 1.000 TL
991 2012 Nissan QASHQAI 1.5 DCI Şehir Seç 7.5.2026 15:30 1.000 TL
992 2012 Kia BONGO K2500 KAMYONET İstanbul 7.5.2026 15:30 1.000 TL
993 2010 Citroen C4 1.6 HDI İstanbul 7.5.2026 15:30 1.000 TL
994 2004 Volkswagen PASSAT 1.9 TDI COMFORTLINE Nevşehir 7.5.2026 15:30 1.000 TL
995 2015 Volkswagen JETTA 1.6 TDI (105) İstanbul 7.5.2026 15:30 1.000 TL
996 2023 Honda PCX 125 Antalya 7.5.2026 15:30 1.000 TL
997 1992 Fiat/Tofaş SAHIN 1.6 Konya 7.5.2026 15:30 1.000 TL
998 2024 Motorsiklet RR525 Şehir Seç 7.5.2026 15:30 1.000 TL
999 2024 Motorsiklet 250 NK İstanbul 7.5.2026 15:30 1.000 TL
1000 2024 Motorsiklet BRILLIANT 125 Şehir Seç 7.5.2026 15:30 1.000 TL
1001 2024 Citroen BERLINGO 1.5 BLUEHDI Mersin 7.5.2026 15:30 1.000 TL
1002 2022 Motorsiklet TEKKEN 125 Muğla 7.5.2026 15:30 1.000 TL
1003 2014 Honda SCR 110 Muğla 7.5.2026 15:30 1.000 TL
1004 2023 Motorsiklet A250 Şanlıurfa 7.5.2026 15:30 1.000 TL
1005 2012 Fiat/Tofaş DOBLO CARGO MAXI 1.6 M.JET Trabzon 7.5.2026 15:30 1.000 TL
1006 2023 Motorsiklet STRADA 125 Ordu 7.5.2026 15:30 1.000 TL
1007 2022 Ford TOURNEO COURIER KOMBI 1.5 TDCI 100 Ankara 7.5.2026 15:30 1.000 TL
1008 2016 Renault MEGANE SEDAN 1.5 DCI EDC 110 Elazığ 7.5.2026 15:30 1.000 TL
1009 2012 Volkswagen JETTA 1.6 TDI (105) COMFORTLINE İstanbul 7.5.2026 15:30 1.000 TL
1010 2022 Ford TOURNEO COURİER 1.5 TDCI 100 İstanbul 7.5.2026 15:30 1.000 TL
1011 2015 Toyota COROLLA 1.6 MULTIDRIVE S Şanlıurfa 7.5.2026 15:30 1.000 TL
1012 2023 Motorsiklet APX5 150 İstanbul 7.5.2026 15:30 1.000 TL
1013 2014 Volkswagen POLO 1.6 TDI (90) Nevşehir 7.5.2026 15:30 1.000 TL
1014 2005 Ford Focus 1.6i Sedan Adana 7.5.2026 15:30 1.000 TL
1015 2012 Ford FİESTA 1.4 TDCI Antalya 7.5.2026 15:30 1.000 TL
1016 2021 Motorsiklet VİSAL 125 Denizli 7.5.2026 15:30 1.000 TL
1017 2012 Citroen BERLİNGO 1.6 HDI 90 Trabzon 7.5.2026 15:30 1.000 TL
1018 2020 Fiat/Tofaş FİORİNO 1.3 MULTİJET Ankara 7.5.2026 15:30 1.000 TL
1019 2016 Nissan NAVARA 2.3 DCI 190 4X4 PLATINUM Ankara 7.5.2026 15:30 1.000 TL
1020 2013 Hyundai I20 1.2 D-CVVT Balıkesir 7.5.2026 15:30 1.000 TL
1021 2008 Ford FIESTA 1.4 TDCi Antalya 7.5.2026 15:30 1.000 TL
1022 2012 Ford T.CONNECT KOMBI K210S 1.8 TDCI Balıkesir 7.5.2026 15:30 1.000 TL
1023 2011 Volkswagen POLO 1.6 TDI (90) Balıkesir 7.5.2026 15:30 1.000 TL
1024 2020 Volkswagen PASSAT 1.6 TDI BMT 120 DSG İstanbul 7.5.2026 15:30 1.000 TL
1025 2001 Ford FOCUS 1.6 AMBIENTE Ardahan 7.5.2026 15:30 1.000 TL
1026 2025 Seat ARONA 1.0 ECOTSI 115 DSG Denizli 7.5.2026 15:30 1.000 TL
1027 2025 Renault CLIO 1.0 TCE X-TRONIC 90 Ankara 7.5.2026 15:30 1.000 TL
1028 2022 Fiat/Tofaş EGEA SEDAN EASY 1.3 M.JET 95 İzmir 7.5.2026 15:30 1.000 TL
1029 2015 Scania CEKICI R400 LA 4x2 HNA Adana 7.5.2026 15:30 1.000 TL
1030 2020 Honda CIVIC SEDAN 1.6 125 OV İstanbul 7.5.2026 15:30 1.000 TL
1031 2015 Renault CLIO HB 1.2 Bursa 7.5.2026 15:30 1.000 TL
1032 2023 Motorsiklet PULSAR RS200 Kocaeli 7.5.2026 15:30 1.000 TL
1033 2013 Volkswagen POLO 1.6 TDI COMFORTLINE (90) Hatay 7.5.2026 15:30 1.000 TL
1034 2012 Volkswagen JETTA 1.6 TDI (105) Şanlıurfa 7.5.2026 15:30 1.000 TL
1035 2002 Opel CORSA 1.2 Adıyaman 7.5.2026 15:30 1.000 TL
1036 1998 Renault BROADWAY 1.4 Şehir Seç 7.5.2026 15:30 1.000 TL
1037 1995 Renault R9 BROADWAY 1.4 Şehir Seç 7.5.2026 15:30 1.000 TL
1038 2005 Fiat/Tofaş DOBLO 1.3 MULTIJET İstanbul 7.5.2026 15:30 1.000 TL
1039 2005 Fiat/Tofaş DOBLO 1.3 MULTIJET İstanbul 7.5.2026 15:30 1.000 TL
1040 1995 Renault R9 BROADWAY 1.4 Şehir Seç 7.5.2026 15:30 1.000 TL
1041 1998 Renault BROADWAY 1.4 Şehir Seç 7.5.2026 15:30 1.000 TL
1042 2002 Opel CORSA 1.2 Adıyaman 7.5.2026 15:30 1.000 TL
1043 2017 Hyundai ACCENT BLUE 1.6 CRDI Şanlıurfa 7.5.2026 15:30 1.000 TL
1044 2024 Motorsiklet RAIDER 125 Kayseri 7.5.2026 15:30 1.000 TL
1045 2011 Volkswagen CADDY KOMBI 1.6 TDI Manisa 7.5.2026 15:30 1.000 TL
1046 2008 Ford T. CONNECT KOMBI GLX K210 S 1.8 TDCi 110 Konya 7.5.2026 15:30 1.000 TL
1047 2011 Renault CLIO HB 1.5 DCI Ordu 7.5.2026 16:30 346.500 TL
1048 2023 Motorsiklet AZURE 50 PRO Balıkesir 7.5.2026 16:30 1.000 TL
1049 2022 Motorsiklet 250 NK Adana 7.5.2026 16:30 1.000 TL
1050 2000 Renault SCENIC 1.6 Mersin 7.5.2026 16:30 1.000 TL
1051 2023 Motorsiklet X-TREME MAXX 200i Bursa 7.5.2026 16:30 1.000 TL
1052 2012 Ford FOCUS 1,6 TDCİ Manisa 7.5.2026 16:30 1.000 TL
1053 2006 Renault MASTER Antalya 7.5.2026 16:30 1.000 TL
1054 2017 Dorse/Römork YARI RÖMORK İzmir 7.5.2026 16:30 1.000 TL
1055 1999 Hyundai ACCENT 1.5 GLS Manisa 7.5.2026 16:30 1.000 TL
1056 2014 Fiat/Tofaş LINEA 1.3 M.JET Kayseri 7.5.2026 16:30 1.000 TL
1057 2021 Volvo XC60 2.0 B4 Bursa 7.5.2026 16:30 556.000 TL
1058 2025 Motorsiklet BLUEBIRD PRO 50 Antalya 7.5.2026 16:30 1.000 TL
1059 1994 Fiat/Tofaş SAHİN 1.6 Denizli 7.5.2026 16:30 1.000 TL
1060 2004 Renault MEGANE 1,6 DYNAMIQUE Tekirdağ 7.5.2026 16:30 1.000 TL
1061 1994 Fiat/Tofaş TEMPRA S Kocaeli 7.5.2026 16:30 1.000 TL
1062 2022 Motorsiklet RUTEC LX05 Bursa 7.5.2026 16:30 1.000 TL
1063 2012 Opel ASTRA 1,4 İzmir 7.5.2026 16:30 6.000 TL
1064 2015 Mercedes AXOR 1840 LS Hatay 7.5.2026 16:30 1.000 TL
1065 2023 Motorsiklet VN50 PRO Giresun 7.5.2026 16:30 1.000 TL
1066 1993 Fiat/Tofaş DOGAN SLX Ankara 7.5.2026 16:30 1.000 TL
1067 2012 Volkswagen CADDY COMBI 1.6 TDI TEAM Kayseri 7.5.2026 16:30 1.000 TL
1068 2025 Motorsiklet VOLTA VS4 ELEKTRIKLI Sivas 7.5.2026 16:30 1.000 TL
1069 2023 Motorsiklet ARORA MT 125 Giresun 7.5.2026 16:30 1.000 TL
1070 2017 Ford TRANSIT COURIER VAN 1.5 TDCI 75 TREND İzmir 7.5.2026 16:30 1.000 TL
1071 2016 Dacia LODGY LAUREATE 1.5 DCI 90 5 KISILIK Antalya 7.5.2026 16:30 25.000 TL
1072 2025 Fiat/Tofaş EGEA SEDAN EASY 1.6 M.JET 130 DCT GSR Samsun 7.5.2026 16:30 110.000 TL
1073 2017 Fiat/Tofaş LINEA 1.4 DYNAMIC Çanakkale 7.5.2026 16:30 1.000 TL
1074 2005 Toyota COROLLA 1.6 TERRA SEDAN (Y) Kocaeli 7.5.2026 16:30 1.000 TL
1075 2011 Renault SYMBOL AUTHENTIQUE 1.5 DCI 65 Antalya 7.5.2026 16:30 5.000 TL
1076 2017 Renault CLIO HB JOY 1.5 DCI 75 Konya 7.5.2026 16:30 1.000 TL
1077 1993 Fiat/Tofaş SAHIN 5 VITES İstanbul 7.5.2026 16:30 500 TL
1078 2025 Bmw X1 XDRIVE25e 1.5 245 M SPORT İzmir 7.5.2026 16:30 1.250.000 TL
1079 1998 Fiat/Tofaş SAHIN S Antalya 7.5.2026 16:30 500 TL
1080 2022 Mercedes C200 4MATIC AMG 1.5 204 9G-TRONIC Ankara 7.5.2026 16:30 1.160.000 TL
1081 2011 Honda CIVIC SEDAN 1.6 ELEGANCE (Y) Ankara 7.5.2026 16:30 63.000 TL
1082 2017 Fiat/Tofaş 124 SPIDER LUSSO 1.4 MULTIAIR 140 Ankara 7.5.2026 16:30 1.500 TL
1083 2025 Fiat/Tofaş EGEA CROSS LIMITED 1.6 M.JET 130DCTGSR TRAC+ İstanbul 7.5.2026 16:30 101.500 TL
1084 2020 Peugeot 308 STYLE TECH 1.5 BLUEHDI 130 EAT6 İstanbul 7.5.2026 16:30 405.000 TL
1085 2024 Citroen BERLINGO SHINE 1.5 BLUEHDI 130 EAT8 FL İstanbul 7.5.2026 16:30 12.500 TL
1086 2020 Fiat/Tofaş EGEA SEDAN EASY 1.4 FIRE 95 İstanbul 7.5.2026 16:30 151.500 TL
1087 2024 Renault CLIO EVOLUTION 1.0 TCE X-TRONIC 90 İstanbul 7.5.2026 16:30 101.000 TL
1088 2022 Fiat/Tofaş EGEA HB STREET 1.3 M.JET 95 E6D İstanbul 7.5.2026 16:30 6.000 TL
1089 2023 Toyota COROLLA 1.5 VISION MULTIDRIVE S FL Kocaeli 7.5.2026 16:30 255.000 TL
1090 2005 Fiat/Tofaş PALIO 1.2 5K Iğdır 7.5.2026 16:30 500 TL
1091 2026 Motorsiklet VOLTA VSX ELEKTRIKLI Malatya 7.5.2026 16:30 500 TL
1092 2025 Motorsiklet ARORA AR 06 Rize 7.5.2026 16:30 500 TL
1093 1998 Fiat/Tofaş UNO S Kütahya 7.5.2026 16:30 500 TL
1094 2013 Karsan JEST 14+1 Mersin 7.5.2026 16:30 1.000 TL
1095 1999 Opel CORSA 1.4I GLS İstanbul 7.5.2026 16:30 500 TL
1096 2023 Citroen E-C4 X SHINE BOLD 100 KW Antalya 7.5.2026 16:30 500 TL
1097 2006 Hyundai ACCENT 1.5 CRDI ADMIRE Bitlis 7.5.2026 16:30 500 TL
1098 2025 Fiat/Tofaş EGEA CROSS URBAN 1.6 M.JET İstanbul 7.5.2026 16:30 500 TL
1099 2008 Fiat/Tofaş PALIO 1.3 MULTIJET DYNAMIC Antalya 7.5.2026 16:30 500 TL
1100 2011 Toyota YARIS 1.33 TERRA SPORTY M/M İstanbul 7.5.2026 16:30 500 TL
1101 2020 Fiat/Tofaş EGEA SEDAN MIRROR 1.6 M.JET 120 DCT E6D İstanbul 7.5.2026 16:30 3.000 TL
1102 2009 Dacia LOGAN MCV AMBIANCE 1.5 DCI İstanbul 7.5.2026 16:30 500 TL
1103 2013 Hyundai I20 1.2 D-CVVT JUMP İstanbul 7.5.2026 16:30 500 TL
1104 2007 Citroen C5 SXPK 1.6 HDI İstanbul 7.5.2026 16:30 2.000 TL
1105 2012 Mazda BT-50 CIFT KABIN İstanbul 7.5.2026 16:30 1.000 TL
1106 2020 Motorsiklet YUKI GUSTO 50 İstanbul 7.5.2026 16:30 500 TL
1107 2010 Peugeot 206+ COMFORT 1.4 (75) İstanbul 7.5.2026 16:30 500 TL
1108 2012 Toyota AURIS 1.4 D-4D Zonguldak 7.5.2026 16:30 151.500 TL
1109 1997 Fiat/Tofaş UNO SX Kahramanmaraş 7.5.2026 16:30 6.600 TL
1110 2007 Honda JAZZ 1.4 İstanbul 7.5.2026 16:30 30.000 TL
1111 1992 Skoda FAVORIT 135L Ankara 7.5.2026 16:30 1.000 TL
1112 2012 Renault FLUENCE 1.5 DCI Manisa 7.5.2026 16:30 1.000 TL
1113 1983 Renault R12 TX Mersin 7.5.2026 16:30 2.000 TL
1114 2023 Motorsiklet ALTAİ TANK S50 Kocaeli 7.5.2026 16:30 1.000 TL
1115 2011 Hyundai ACCENT ERA 1.5 CRDi VGT İstanbul 7.5.2026 16:30 1.000 TL
1116 2016 Motorsiklet MT 25 Samsun 7.5.2026 16:30 1.000 TL
1117 2025 Honda DIO Antalya 7.5.2026 16:30 1.000 TL
1118 2017 Fiat/Tofaş EGEA EASY 1.3 M.JET Denizli 7.5.2026 16:30 20.000 TL
1119 2010 Dacia LOGAN MCV AMBIANCE 1.5 DCI İzmir 7.5.2026 16:30 1.000 TL
1120 2024 Honda PCX 125 İstanbul 7.5.2026 16:30 10.000 TL
1121 2020 Volkswagen PASSAT 1.6 TDI BMT İzmir 7.5.2026 16:30 5.000 TL
1122 2023 Motorsiklet NTORQ 125 İzmir 7.5.2026 16:30 3.500 TL
1123 2002 Peugeot PARTNER 1.9D Trabzon 7.5.2026 16:30 1.000 TL
1124 1997 Fiat/Tofaş SAHIN S Kahramanmaraş 7.5.2026 16:30 1.000 TL
1125 2025 Motorsiklet PULSAR NS 200 UG Balıkesir 7.5.2026 16:30 2.000 TL
1126 2022 Audi A5 SPORTBACK 40TDI QUATTRO ADVANCED Adana 8.5.2026 15:15 2.380.000 TL
1127 2015 Mercedes CEKICI AXOR 1840 LS 4X2 Mardin 8.5.2026 15:15 650.000 TL
1128 2016 Renault KADJAR 1.5 DCI Mardin 8.5.2026 15:15 726.500 TL
1129 2017 Opel ASTRA NB 1.6 İstanbul 8.5.2026 15:15 577.500 TL
1130 2016 Volkswagen JETTA 1.4 TSI BMT Bursa 8.5.2026 15:15 671.500 TL
1131 2022 Volkswagen PASSAT 1.5 TSI Mersin 8.5.2026 15:15 1.154.000 TL
1132 2005 Dorse/Römork FRİGORİFİK YARI RÖMORK Mersin 8.5.2026 15:15 1.000 TL
1133 2020 Porsche CAYENNE 3.0 İstanbul 8.5.2026 15:15 56.500 TL
1134 2021 Renault MEGANE SEDAN JOY 1.3 TCE İstanbul 8.5.2026 15:15 1.000 TL
1135 2022 Audi A5 SPORTBACK 40 TDI QUATTRO İzmir 8.5.2026 15:15 415.500 TL
1136 2022 Renault ZOE Konya 8.5.2026 15:15 1.200 TL
1137 2011 Mitsubishi CANTER KAMYON FE 859 G Bursa 8.5.2026 15:15 1.000 TL
1138 2006 Scania KAMYON R 380 GB 8x2 NZ Bolu 8.5.2026 15:15 1.500 TL
1139 2024 Fiat/Tofaş DOBLO COMBI 1.5 BLUEHDI Antalya 8.5.2026 15:15 500 TL
1140 2024 Toyota COROLLA 1.5 SEDAN İstanbul 8.5.2026 15:15 1.000 TL
1141 2015 Ford FOCUS III MCA 1.6 TDCI Diyarbakır 8.5.2026 15:30 1.000 TL
1142 2006 Opel ASTRA HB 1.3 CDTi ENJOY İzmir 8.5.2026 15:30 1.000 TL
1143 1998 Proton PERSONA 1.3 Şehir Seç 8.5.2026 15:30 1.000 TL
1144 2017 Peugeot 301 1.6 HDI Kayseri 8.5.2026 15:30 1.000 TL
1145 2001 Iveco 120-14 Manisa 8.5.2026 15:30 1.000 TL
1146 2004 Peugeot PARTNER 190 C 1.9D Şehir Seç 8.5.2026 15:30 1.000 TL
1147 1997 Toyota COROLLA 1.6 XEi Sivas 8.5.2026 15:30 1.000 TL
1148 2008 Volkswagen CADDY KOMBI 1.9 TDI Antalya 8.5.2026 15:30 1.000 TL
1149 2006 Hyundai ACCENT 1.5 CRDI ADMIRE İstanbul 8.5.2026 15:30 1.000 TL
1150 2017 Toyota YARIS 1.5 İstanbul 8.5.2026 15:30 1.000 TL
1151 2004 Fiat/Tofaş ALBEA 1.2 16V EL Uşak 8.5.2026 15:30 1.000 TL
1152 2012 Kia SPORTAGE 2.0 DSL Trabzon 8.5.2026 15:30 1.000 TL
1153 2006 Alfa Romeo 156 1.6 TS Ankara 8.5.2026 15:30 1.000 TL
1154 2017 Mercedes C 200 d 1.6 D SEDAN Bursa 8.5.2026 15:30 1.000 TL
1155 2023 Ford TOURNEO COURIER KOMBI 1.5 TDCI Kayseri 8.5.2026 15:30 1.000 TL
1156 2024 Motorsiklet JUPİTER 10 Antalya 8.5.2026 15:30 1.000 TL
1157 2024 Honda PCX 125 Muğla 8.5.2026 15:30 1.000 TL
1158 2022 Volkswagen POLO 1.0 TSI Kocaeli 8.5.2026 15:30 1.000 TL
1159 2003 Volkswagen PASSAT 1.9 TDI COMFORTLINE (130) Karaman 8.5.2026 15:30 1.000 TL
1160 2014 Renault CLIO HB 1.5 DCI 75 Antalya 8.5.2026 15:30 1.000 TL
1161 2013 Fiat/Tofaş LINEA 1.3 MULTIJET 95 Karabük 8.5.2026 15:30 1.000 TL
1162 2015 Volkswagen GOLF VII 1.2 TSI BMT 105 Balıkesir 8.5.2026 15:30 1.000 TL
1163 2023 Dorse/Römork KRONE SDP27 Kocaeli 8.5.2026 15:30 1.000 TL
1164 2017 Renault MEGANE SEDAN 1.5 DCI Şehir Seç 8.5.2026 15:30 1.000 TL
1165 2024 Motorsiklet LCG 125 Antalya 8.5.2026 15:30 1.000 TL
1166 2011 Skoda FABIA HB 1.4 İzmir 8.5.2026 15:30 1.000 TL
1167 1993 Fiat/Tofaş SAHiN 1.6 Ankara 8.5.2026 15:30 1.000 TL
1168 2023 Motorsiklet EGE 50 Isparta 8.5.2026 15:30 1.000 TL
1169 2000 Lada 2110 VEGA 1.5i İzmir 8.5.2026 15:30 1.000 TL
1170 2025 Motorsiklet AR 125 Adana 8.5.2026 15:30 1.000 TL
1171 2021 Renault EXPRESS VAN JOY 1.5 BLUEDCI Konya 8.5.2026 15:30 1.000 TL
1172 2024 Motorsiklet R250 Mersin 8.5.2026 15:30 1.000 TL
1173 2022 Ford TRANSIT VAN 350ED Tekirdağ 8.5.2026 15:30 1.000 TL
1174 1987 Renault 12 TSW TOROS Şehir Seç 8.5.2026 15:30 1.000 TL
1175 2020 Opel ASTRA NB 1.4 140 Muğla 8.5.2026 15:30 1.000 TL
1176 2024 Motorsiklet SRV 250 VS Denizli 8.5.2026 15:30 1.000 TL
1177 2023 Citroen BERLINGO VAN 1.5 BLUEHDI Denizli 8.5.2026 15:30 1.000 TL
1178 2024 Motorsiklet SRK 125 R Aksaray 8.5.2026 15:30 1.000 TL
1179 2001 Fiat/Tofaş SAHIN 1.6 i.e. Şehir Seç 8.5.2026 15:30 1.000 TL
1180 2023 Ford TOURNEO COURIER KOMBI 1.5 TDCI 100 Antalya 8.5.2026 15:30 1.000 TL
1181 2000 Renault CLIO SYM. 1,4 RNA Kayseri 8.5.2026 15:30 1.000 TL
1182 1986 Mercedes 200 Şehir Seç 8.5.2026 15:30 1.000 TL
1183 1996 Renault R9 BROADWAY 1.4 Ankara 8.5.2026 15:30 1.000 TL
1184 2007 Renault MEGANE II SEDAN 1.6 Kayseri 8.5.2026 15:30 1.000 TL
1185 2013 Motorsiklet SEYHAN 150 C Ankara 8.5.2026 15:30 1.000 TL
1186 2021 Honda NSS250A FORZA 250 Şehir Seç 8.5.2026 15:30 1.000 TL
1187 1998 Fiat/Tofaş UNO SX İE İzmir 8.5.2026 15:30 1.000 TL
1188 2012 Volvo S60 1.6 DRIVE Şehir Seç 8.5.2026 15:30 1.000 TL
1189 2005 Kia SPORTAGE 2.0 D EX OV Antalya 8.5.2026 15:30 1.000 TL
1190 2013 Ford FIESTA 1.5 TDCI 75 Denizli 8.5.2026 15:30 1.000 TL
1191 2002 Renault CLİO SYMBOL 1.4 Sakarya 8.5.2026 15:30 1.000 TL
1192 1993 Renault R9 BROADWAY 1.4 Isparta 8.5.2026 15:30 1.000 TL
1193 2021 Honda DİO 110 Denizli 8.5.2026 15:30 1.000 TL
1194 2020 Ford TRANSİT COURIER 1.5 TDCİ 75 Antalya 8.5.2026 15:30 1.000 TL
1195 1999 Fiat/Tofaş KARTAL 1.6 Antalya 8.5.2026 15:30 1.000 TL
1196 1991 Mazda 323 1.6 İzmir 8.5.2026 15:30 1.000 TL
1197 2014 Hyundai ACCENT BLUE 1.6 CRDI İstanbul 8.5.2026 15:30 1.000 TL
1198 2013 Volkswagen JETTA 1.4 TSI (122) Kırklareli 8.5.2026 15:30 1.000 TL
1199 2014 Volkswagen CADDY 1.6 TDI (102) Eskişehir 8.5.2026 15:30 1.000 TL
1200 2016 Honda CİVİC SEDAN 1.6 125 Ankara 8.5.2026 15:30 1.000 TL
1201 2015 Renault CLİO 1.5 DCİ 75 Adana 8.5.2026 15:30 1.000 TL
1202 2017 Renault CLIO 1.2 TCE Antalya 8.5.2026 15:30 1.000 TL
1203 2016 Skoda OCTAVIA 1.6 TDI Van 8.5.2026 15:30 1.000 TL
1204 2010 Renault FLUENCE EXPRESSION 1.5 DCI Şehir Seç 8.5.2026 15:30 1.000 TL
1205 2023 Skoda SUPERB 1.5 TSI 150 DSG İzmir 8.5.2026 15:30 1.000 TL
1206 2005 Opel COMBO 1.3 CDTi Konya 8.5.2026 15:30 1.000 TL
1207 1997 Fiat/Tofaş TIPO 2.0 i.e Mardin 8.5.2026 15:30 1.000 TL
1208 2009 Bmc CEKICI PRO 827 (4x2) ZCX Şehir Seç 8.5.2026 15:30 1.000 TL
1209 1998 Renault R9 BROADWAY 1.4 Malatya 8.5.2026 15:30 1.000 TL
1210 1974 Renault R12 TSW TOROS Afyonkarahisar 8.5.2026 15:30 1.000 TL
1211 1993 Fiat/Tofaş DOĞAN SL Ankara 8.5.2026 15:30 1.000 TL
1212 2024 Honda NSS250A FORZA 250 Muğla 8.5.2026 15:30 1.000 TL
1213 1996 Fiat/Tofaş DOĞAN SLX Şehir Seç 8.5.2026 15:30 1.000 TL
1214 2021 Renault CLIO TOUCH 1.0 TCE X-TRONIC 90 Siirt 8.5.2026 15:30 1.000 TL
1215 2005 Fiat/Tofaş PALIO 1.2 16V Ankara 8.5.2026 15:30 1.000 TL
1216 1995 Skoda FELICIA 1.3 Kayseri 8.5.2026 15:30 1.000 TL
1217 2012 Volvo S60 DRIVE POWERSHIFT 1.6 İstanbul 8.5.2026 15:30 1.000 TL
1218 2008 Volkswagen JETTA 1.6 FSI COMFORTLINE (115) Ankara 8.5.2026 15:30 1.000 TL
1219 2016 Renault SYMBOL 1.5 DCI 90 İzmir 8.5.2026 15:30 1.000 TL
1220 2017 Ford FOCUS 1.5 TDCI 120 Batman 8.5.2026 15:30 1.000 TL
1221 1988 Fiat/Tofaş SAHIN 1.6 Kayseri 8.5.2026 15:30 1.000 TL
1222 2013 Fiat/Tofaş DOBLO COMBI 1.3 90 M.JET PREMIO BLACK Kayseri 8.5.2026 15:30 1.000 TL
1223 2015 Renault SYMBOL 1.2 16V 75 Kayseri 8.5.2026 15:30 1.000 TL
1224 2017 Citroen C-ELYSEE 1.6 HDI 92 ATTRACTION Kayseri 8.5.2026 15:30 1.000 TL
1225 2011 Man TGX 18.440 4x2 BLS XLX Ankara 8.5.2026 16:30 1.000 TL
1226 2025 Audi A5 SEDAN 2.0 TFSI QUATTRO 204 STRONIC İstanbul 8.5.2026 16:30 1.500 TL
1227 2024 Ford TRAN.ICA3 350L VAN 11M3 2.0 165 UZUN TREND Ankara 8.5.2026 16:30 2.500 TL
1228 2020 Audi A3 SEDAN 1.5 35 TFSI 150 DYNAMIC STRONIC PI Ankara 8.5.2026 16:30 525.000 TL
1229 2025 Motorsiklet SKYTOWN 125 ABS İstanbul 8.5.2026 16:30 1.000 TL
1230 1994 Opel ASTRA 1.4 HB Kayseri 8.5.2026 16:30 1.000 TL
1231 2024 Motorsiklet SAFARI 50 Afyonkarahisar 8.5.2026 16:30 1.000 TL
1232 2023 Honda ACTIVA 125 İzmir 8.5.2026 16:30 1.000 TL
1233 2023 Honda DIO İstanbul 8.5.2026 16:30 1.000 TL
1234 2024 Motorsiklet 250 RR Adana 8.5.2026 16:30 1.000 TL
1235 2023 Motorsiklet SPONTINI 110 (GST110T-14) İzmir 8.5.2026 16:30 1.000 TL
1236 2024 Motorsiklet 125 DRIFT L CBS Eskişehir 8.5.2026 16:30 1.000 TL
1237 2016 Kia CERATO 1.6 DIZEL 136 DCT İstanbul 11.5.2026 15:30 1.000 TL
1238 2011 Volkswagen SCIROCCO 1.4 TSI 160 Mersin 11.5.2026 15:30 1.000 TL
1239 2003 Opel COMBO 1.7 DTI Konya 11.5.2026 15:30 1.000 TL
1240 2006 Saab 9-3 VECTOR 2.0 T SEDAN Afyonkarahisar 28.7.2026 16:30 265.000 TL
Deniz Uğurlu : 0532 6657413 - Abdullah Adsay : 0506 7521791 - Metin Oktay : 0532 6717940 -  WhatsApp Hattı: 0533 2028867
Banka Hesabımız
Copyright © 2003 , TAŞKIN  UĞURLU  Hasarlı Oto Tüm hakları saklıdır.